GFSNE_925_thetae_000.txt.gz
Theta_e
295 296 296 297 298 299 298 298 298 299 300 301 301 301 301 303 305 305 307 305 307 313 315 316 316 321 322 321 320 319 317 316 315 315 314 312 313 312
295 295 296 296 297 297 297 298 299 300 299 300 300 300 299 299 302 304 305 306 306 306 307 310 313 317 320 321 320 318 317 316 315 314 313 312 312 312
293 293 294 294 294 295 296 296 297 298 298 298 299 299 299 299 299 300 302 304 305 309 309 310 308 312 315 319 320 319 318 317 315 313 312 312 311 313
292 292 293 293 293 294 294 295 296 296 297 297 298 298 298 298 297 296 300 302 302 301 301 302 304 309 311 313 319 320 319 318 316 313 311 311 312 313
291 291 291 291 292 292 293 293 294 295 295 296 297 297 297 297 298 296 296 299 301 303 301 299 298 307 306 310 309 318 319 318 317 314 315 313 312 312
290 290 290 290 290 290 290 291 291 292 293 294 296 296 297 297 296 297 296 295 300 301 300 301 301 302 305 306 306 308 317 318 318 314 313 314 313 312
287 287 287 286 287 287 287 288 289 289 290 292 294 295 296 296 296 296 297 297 299 300 299 298 299 301 302 305 305 304 310 317 317 315 314 314 313 311
286 285 285 285 285 285 285 286 286 287 288 289 290 292 293 295 296 296 296 296 296 298 298 296 296 299 302 304 303 304 305 312 315 316 314 314 313 310
284 284 284 284 284 285 285 286 286 286 286 286 287 288 289 290 292 295 295 294 297 297 296 294 295 296 298 300 304 304 304 309 313 315 314 313 311 307
284 284 284 284 284 284 285 286 286 287 287 287 286 286 287 287 289 290 292 292 295 295 294 292 291 290 292 295 300 302 302 307 309 311 312 311 305 301
284 285 285 284 284 285 285 286 286 286 287 288 288 288 287 287 287 288 289 290 292 291 292 291 288 288 288 291 294 298 302 302 305 303 309 306 302 298
285 286 285 286 286 285 285 286 286 286 287 286 287 288 288 288 288 288 288 289 290 290 290 290 286 287 285 286 290 293 297 297 295 302 307 302 298 294
285 285 285 285 285 285 286 286 286 286 286 287 287 287 287 288 289 288 288 289 290 291 291 290 285 286 285 285 286 288 291 291 292 290 290 295 295 294
284 285 285 285 285 285 285 285 285 285 286 287 287 287 288 289 288 289 289 289 290 291 292 290 288 288 285 285 284 285 287 287 289 288 287 287 287 286
283 283 284 284 284 284 284 284 284 284 284 285 287 288 288 288 289 290 291 291 292 292 292 289 291 288 287 285 284 285 285 285 286 286 285 284 283 283
284 284 284 285 285 285 286 286 286 286 284 285 287 287 288 289 290 291 290 290 290 287 288 287 288 287 286 285 285 283 283 283 284 284 284 283 282 282
284 284 284 284 284 284 285 288 286 286 285 287 287 287 288 288 290 289 288 288 286 285 284 285 286 286 285 284 283 282 282 282 282 282 282 280 281 282
283 284 283 282 283 283 284 287 288 288 288 287 288 288 289 289 288 286 287 288 285 284 284 283 283 282 282 281 282 281 281 282 281 281 280 280 280 281
283 282 282 282 281 282 282 283 284 288 288 288 288 288 288 287 287 286 287 286 285 284 283 282 282 282 282 281 280 281 280 280 280 279 280 280 279 279
283 283 282 281 282 281 281 282 283 284 284 285 288 288 286 286 286 287 285 285 284 284 283 282 282 283 282 280 279 279 280 280 279 279 279 279 279 280
282 282 282 282 280 281 281 281 282 282 283 283 284 285 286 287 286 285 285 284 283 283 282 282 283 284 282 280 277 274 278 280 279 279 279 278 277 276
279 280 280 281 281 280 280 280 280 281 282 281 281 281 283 283 283 283 283 283 282 280 277 279 280 280 279 278 275 274 273 276 278 278 278 278 278 277
276 277 278 279 280 280 280 279 279 279 280 280 280 279 279 278 279 279 278 278 278 278 279 279 280 280 279 277 275 275 273 274 274 276 275 275 277 277

GFSNE_925_thetae_003.txt.gz
Theta_e
294 295 295 295 296 296 296 297 297 297 298 298 298 298 297 301 302 301 300 301 302 306 307 306 311 314 316 317 320 319 318 318 317 315 316 314 314 315
294 294 295 295 295 296 297 297 297 297 297 298 299 300 300 300 300 300 299 299 299 301 303 304 308 307 309 313 316 319 319 318 318 316 315 315 315 315
292 293 293 293 294 294 294 295 295 295 295 296 296 297 298 298 298 299 299 298 297 299 301 303 305 306 307 310 310 313 319 320 318 317 316 315 314 315
291 292 292 292 292 292 292 293 293 293 294 294 294 295 296 297 297 298 298 297 297 297 299 300 300 301 301 300 301 305 313 319 319 318 317 315 314 315
290 290 290 291 291 291 291 291 292 293 293 293 293 294 295 296 296 297 297 297 297 296 296 298 299 299 300 301 299 305 307 312 319 319 317 316 314 314
289 289 288 288 288 288 288 288 288 289 290 290 291 292 293 294 296 296 296 297 296 296 296 296 299 300 300 299 301 302 307 309 311 319 318 316 314 314
287 287 287 286 287 286 286 286 286 287 287 288 289 290 291 291 294 295 295 296 296 296 297 297 299 299 299 299 299 301 304 307 309 311 318 317 315 313
285 285 284 285 285 284 284 284 285 285 285 286 286 287 288 289 292 292 293 293 291 296 296 297 297 298 298 297 297 301 302 304 307 307 309 315 315 313
283 283 283 283 284 284 284 284 284 285 285 286 286 286 286 287 288 289 290 291 292 293 295 293 296 296 295 295 295 298 300 303 305 305 305 308 315 313
283 283 283 283 284 283 283 284 284 284 285 285 286 286 286 286 286 287 288 290 290 290 292 292 293 293 294 294 294 297 300 302 304 304 304 304 309 314
284 284 284 284 284 285 285 285 284 284 284 285 285 286 287 287 286 286 286 287 288 289 292 291 290 290 291 293 293 294 298 301 303 304 304 303 306 313
283 283 283 284 285 285 285 285 285 285 285 285 286 286 286 287 287 287 287 286 287 288 289 290 288 288 287 289 290 292 294 298 301 303 304 304 303 305
283 283 283 283 284 284 285 285 285 285 285 285 285 286 286 286 286 287 288 288 287 287 289 291 287 287 286 286 288 289 290 294 298 300 299 302 300 298
283 283 283 283 283 284 284 285 285 285 285 286 286 286 286 286 286 287 287 287 287 287 288 289 291 288 285 284 285 286 287 289 291 294 294 293 292 290
283 283 283 284 284 284 284 284 284 284 284 284 284 285 286 286 287 287 288 288 288 288 287 289 290 290 286 285 284 285 285 285 286 288 288 289 289 287
283 283 282 283 283 283 283 284 285 285 285 284 284 284 285 286 287 287 287 288 288 287 288 289 290 289 286 286 285 284 284 284 284 283 283 282 282 283
282 281 281 281 281 282 282 282 287 285 286 285 284 284 285 287 287 288 288 287 285 284 284 285 286 286 286 285 284 284 283 283 283 282 283 282 282 284
282 281 280 280 280 280 281 281 283 287 287 286 285 286 287 287 287 287 287 287 285 284 283 283 284 283 282 282 283 282 282 282 282 282 281 280 280 280
281 281 279 279 280 280 280 280 281 282 286 288 287 287 287 287 286 286 286 285 283 282 281 282 282 282 281 278 280 281 281 281 281 280 281 281 280 279
281 280 281 279 279 279 279 279 280 281 282 282 285 286 286 286 286 285 285 283 282 281 281 281 282 282 281 279 278 279 280 280 280 279 279 280 280 280
278 279 279 279 279 278 278 278 279 279 279 280 281 281 284 285 285 284 284 283 282 281 281 281 282 282 281 280 277 276 279 280 280 279 279 279 278 277
275 276 276 277 278 279 279 278 278 278 278 278 279 280 280 281 282 282 282 281 280 279 278 279 280 281 280 278 274 273 274 277 278 278 279 279 278 277
273 274 274 275 276 277 278 278 278 278 278 277 277 277 278 278 278 278 278 278 278 278 278 279 278 279 277 275 274 274 272 274 274 275 274 275 277 278

GFSNE_925_thetae_006.txt.gz
Theta_e
292 293 293 294 294 295 295 296 295 295 295 296 296 297 298 299 299 300 299 300 301 299 299 300 302 304 307 308 312 313 315 319 318 317 316 315 316 314
292 292 292 292 292 293 292 293 294 294 294 294 294 294 295 295 295 297 297 298 300 300 297 298 299 302 303 305 308 308 310 315 317 318 316 315 316 315
291 290 290 291 291 292 292 292 293 293 293 293 293 294 294 294 294 295 296 296 297 298 297 297 297 300 301 299 300 300 300 302 313 316 317 316 315 315
289 289 289 290 290 290 290 290 291 291 291 291 292 293 293 294 295 296 296 296 296 296 296 297 296 296 295 297 298 299 299 300 301 309 316 316 316 315
289 289 289 289 289 289 289 289 288 289 289 289 290 291 291 292 293 294 295 295 296 296 296 296 296 296 295 296 296 299 298 298 299 305 309 316 316 316
287 287 287 287 287 287 286 286 286 286 287 287 288 288 289 290 291 292 292 292 293 294 295 296 296 296 295 296 299 299 298 298 299 301 307 310 314 316
285 285 285 285 286 286 286 286 286 285 285 285 285 286 287 287 288 289 292 292 293 294 295 295 296 296 296 297 298 298 298 298 299 300 305 307 311 314
283 283 283 283 283 283 283 283 284 284 284 284 284 285 285 285 286 287 289 291 290 293 292 294 295 296 296 296 297 297 297 296 296 299 301 306 308 309
283 283 283 283 283 283 283 284 284 284 284 284 284 284 285 285 285 286 288 289 289 290 291 291 293 294 296 296 296 297 297 297 296 297 300 304 306 308
283 283 283 283 283 283 283 283 283 283 283 284 284 284 285 285 285 285 285 286 287 288 289 290 291 292 294 295 295 296 295 295 296 298 300 301 304 305
283 283 283 283 283 284 284 284 284 284 284 284 284 284 284 285 286 285 285 285 285 286 287 288 289 291 291 292 294 294 294 294 294 297 299 301 303 304
282 282 282 282 283 283 283 284 284 285 284 284 284 285 285 285 285 286 286 286 285 284 286 288 288 289 289 291 293 293 293 293 293 295 297 299 303 304
282 282 282 283 283 283 283 284 284 284 285 285 285 284 284 285 285 286 286 287 286 286 287 288 288 288 290 289 291 291 291 292 292 293 295 299 301 301
283 283 283 283 283 284 284 283 284 284 284 285 284 285 285 285 285 285 286 286 287 287 287 287 288 288 287 284 284 290 290 290 289 291 293 295 300 300
283 282 282 282 282 282 283 283 284 284 284 284 284 284 285 285 285 286 286 286 287 287 287 287 287 287 288 287 288 287 287 288 287 288 288 291 295 296
281 281 280 280 280 281 281 282 282 284 284 284 284 284 284 284 285 286 286 286 286 286 286 287 287 287 286 287 288 286 287 286 284 285 285 285 288 290
282 280 279 279 279 279 280 280 281 283 285 285 285 284 284 284 284 285 285 286 287 286 285 286 286 286 287 287 285 286 285 284 283 283 283 281 282 283
281 281 279 278 278 279 279 279 280 281 282 285 285 284 284 284 285 286 287 287 286 285 283 282 283 283 283 283 285 284 284 283 282 282 282 281 280 282
280 279 279 279 278 278 278 278 278 279 281 284 286 286 286 287 287 286 286 286 284 283 283 283 283 283 281 280 280 282 282 282 281 281 281 281 279 280
277 278 278 278 278 278 277 277 277 278 279 279 281 283 285 285 285 285 284 283 281 281 281 282 282 283 281 278 276 279 281 281 281 280 279 280 280 280
275 275 275 276 276 277 277 277 277 277 278 278 279 280 282 284 283 283 283 282 281 281 280 281 282 283 282 280 277 277 279 280 281 281 279 279 278 278
273 273 274 275 275 276 277 277 277 277 277 277 278 278 278 280 281 281 281 281 280 280 278 278 279 280 280 277 273 274 275 277 278 278 280 280 279 278
271 272 273 274 274 275 276 277 277 277 277 277 277 277 277 277 277 278 278 279 278 278 278 278 278 278 276 275 274 273 273 274 274 275 276 277 278 280

GFSNE_925_thetae_009.txt.gz
Theta_e
292 292 292 292 292 292 293 294 294 293 292 293 294 293 293 293 294 294 294 295 295 296 301 303 299 299 302 303 307 308 311 314 314 319 318 318 317 316
291 291 291 290 290 290 291 291 293 293 292 292 293 293 293 294 294 294 293 293 294 295 296 299 299 297 298 301 300 300 301 303 310 313 318 318 317 317
289 289 289 289 289 289 289 290 291 292 291 291 291 291 291 291 291 292 293 294 295 296 296 296 297 297 297 298 297 298 299 299 300 309 312 315 317 318
289 289 289 289 289 289 289 289 289 290 290 289 290 291 291 292 292 292 293 293 294 294 295 295 295 296 299 296 295 295 295 298 298 298 304 312 314 318
288 288 288 287 287 288 288 288 288 287 287 287 287 288 288 289 290 290 292 292 292 293 293 293 293 294 295 297 297 295 296 299 299 297 298 301 309 314
287 286 286 285 285 285 285 285 286 286 286 286 286 286 287 287 288 289 289 290 290 290 290 290 290 293 295 296 297 296 296 297 297 297 296 298 304 309
284 284 283 283 284 284 285 285 285 285 285 285 285 284 284 285 286 287 287 287 288 289 289 289 290 293 294 296 297 296 296 297 297 297 298 298 299 305
283 282 282 282 283 283 283 283 284 284 284 284 284 283 283 284 284 284 285 286 286 288 289 290 291 293 295 295 296 296 296 297 297 297 297 296 298 299
282 282 282 282 283 283 283 283 283 284 284 284 284 284 284 284 284 285 285 285 286 288 289 289 290 290 291 293 294 295 296 296 296 296 295 296 296 298
282 282 282 282 282 282 282 282 283 283 283 283 283 284 284 284 284 284 284 284 285 286 287 288 287 288 289 291 292 294 294 295 295 295 294 294 297 299
282 281 282 282 282 283 283 283 283 283 283 284 284 284 284 284 284 284 285 285 284 284 285 286 286 287 287 288 289 291 292 293 294 294 293 294 296 298
281 281 281 282 282 283 283 283 283 283 283 283 284 284 284 285 285 285 285 285 285 284 285 285 286 287 287 289 289 290 292 292 292 293 293 292 293 296
281 282 282 283 283 283 284 284 284 284 283 283 283 284 284 284 284 284 285 285 286 285 285 286 286 286 287 288 289 291 291 291 291 291 292 292 292 293
282 283 282 282 282 281 282 282 283 284 284 284 284 284 284 284 284 284 284 285 285 286 286 286 286 287 286 285 286 289 289 289 289 290 291 291 290 291
283 281 281 280 280 280 281 281 281 282 283 283 284 284 284 284 284 284 284 285 285 285 286 286 286 286 287 286 286 287 288 287 288 289 290 288 288 290
282 281 279 279 279 279 279 280 280 281 282 283 284 284 284 284 284 285 284 285 285 285 286 286 286 286 285 285 286 286 286 287 285 287 288 286 286 287
281 280 280 278 277 278 278 278 279 280 280 281 284 284 284 283 283 284 285 285 285 285 285 285 286 286 286 286 285 285 285 285 285 284 285 284 284 284
280 279 278 277 277 277 277 277 278 278 279 281 284 284 284 283 283 283 284 285 285 285 285 285 285 284 283 282 284 285 284 283 282 282 283 282 281 282
277 277 276 276 276 277 276 276 276 277 278 279 280 282 284 285 284 284 285 285 285 285 283 283 283 284 283 283 280 281 282 281 281 281 282 282 280 280
275 275 275 275 275 275 276 276 275 276 277 277 278 279 282 282 283 283 284 283 282 281 281 282 282 282 283 282 279 279 281 281 281 280 279 280 279 280
273 273 273 273 274 274 275 276 276 276 276 277 277 277 279 281 280 281 282 281 281 281 280 279 280 282 282 280 277 277 279 280 281 281 279 279 278 278
271 271 272 273 273 274 275 276 276 276 276 276 276 277 277 278 279 280 280 280 279 280 277 278 279 280 280 278 274 274 275 277 279 279 279 279 279 278
270 271 272 272 273 274 274 275 275 276 276 276 276 276 277 277 277 278 278 278 278 278 278 278 278 277 276 275 275 273 274 275 276 278 278 278 279 280

GFSNE_925_thetae_012.txt.gz
Theta_e
292 291 291 291 291 290 291 292 293 292 292 291 292 292 292 293 293 294 294 294 292 292 294 295 302 301 299 300 301 303 301 301 306 313 316 321 319 318
291 291 290 289 289 288 289 289 290 292 292 291 291 291 292 292 292 291 291 290 291 293 294 295 296 299 298 296 298 299 300 300 300 308 311 316 319 318
290 289 289 289 288 288 288 289 289 290 290 290 290 290 290 290 290 290 290 291 291 293 294 294 295 295 295 297 298 297 296 297 299 298 302 313 316 319
288 288 288 288 288 288 288 288 288 288 288 288 289 289 290 290 290 291 290 290 290 290 291 292 293 294 293 294 299 295 295 295 295 298 297 303 311 315
287 287 287 286 286 286 286 285 286 286 286 287 287 286 287 287 287 287 288 288 288 290 290 289 290 291 292 292 294 296 297 295 295 297 297 297 300 309
286 285 284 284 283 283 283 284 284 284 284 285 285 285 285 286 286 286 287 287 287 287 287 289 288 288 289 290 290 294 297 296 295 297 297 296 297 298
284 284 283 283 283 284 284 284 284 284 284 285 285 285 285 284 285 285 285 286 286 287 287 287 287 288 287 288 289 292 297 297 296 295 296 296 297 297
283 282 282 282 282 282 283 283 284 284 283 283 284 284 283 283 283 283 284 284 285 284 285 286 287 288 288 289 291 294 295 296 296 296 296 297 297 296
282 281 281 282 282 282 282 282 282 283 283 283 284 284 284 283 283 283 283 283 284 284 285 286 288 289 290 290 291 293 294 295 296 296 296 296 296 296
281 281 281 281 281 282 282 282 282 282 282 282 282 283 283 283 283 283 284 284 284 284 284 286 286 287 287 287 287 289 291 293 294 294 295 295 295 294
281 280 281 281 282 282 282 282 283 283 283 283 283 283 283 283 283 283 283 284 284 284 284 284 285 285 285 286 286 286 289 290 291 293 294 293 293 293
281 281 281 282 282 283 283 283 283 283 284 284 283 283 283 284 284 284 284 284 284 284 284 284 284 285 285 286 287 287 287 288 290 292 292 291 292 292
281 281 282 282 282 282 282 281 281 282 283 284 283 283 283 284 284 284 284 285 285 285 284 285 285 285 285 286 286 286 288 289 291 290 290 290 291 291
281 282 282 281 281 280 280 280 281 281 281 282 283 283 283 284 284 284 284 283 284 284 285 285 285 285 284 285 285 286 287 288 288 288 289 289 290 291
282 282 280 279 279 279 279 279 279 280 281 281 283 283 284 284 284 284 284 284 284 284 284 285 285 285 285 285 285 286 287 287 287 287 287 288 289 289
281 280 279 278 278 278 278 278 278 279 279 280 282 283 284 284 284 284 284 284 284 284 284 285 285 285 285 285 285 286 286 285 286 286 287 287 287 287
280 278 278 277 276 277 276 276 277 277 278 279 281 283 284 283 283 283 284 284 284 284 284 285 285 285 285 285 284 285 285 285 286 286 286 285 285 285
277 276 276 275 275 276 276 275 275 276 276 277 279 280 281 283 283 282 283 284 284 284 285 285 284 285 284 283 284 285 284 284 285 285 284 283 282 282
275 275 274 274 274 274 275 275 274 275 276 276 277 278 280 281 283 283 283 284 285 285 285 284 284 284 284 283 281 282 283 283 283 282 282 282 281 281
273 273 273 273 273 273 273 273 274 275 275 276 276 277 279 280 280 280 281 282 282 281 281 282 282 283 284 283 281 280 281 281 281 281 280 280 279 279
271 272 272 272 272 272 273 274 274 274 274 275 275 276 277 278 279 280 280 281 281 280 279 278 279 281 281 280 278 277 279 280 281 280 279 279 278 279
270 271 271 271 271 272 273 273 274 274 273 274 275 276 276 277 277 278 278 278 278 278 277 278 279 280 279 278 276 275 276 277 278 279 279 279 279 280
269 270 271 271 272 272 273 273 273 273 273 274 275 275 276 276 276 277 277 277 277 277 277 277 277 276 276 276 275 275 275 276 277 278 279 279 279 280

GFSNE_925_thetae_015.txt.gz
Theta_e
292 292 292 292 292 293 293 292 292 293 294 293 292 292 292 292 293 293 294 295 294 292 291 292 293 296 301 299 300 301 303 304 301 303 308 312 314 319
293 293 293 292 292 292 292 291 291 291 292 290 290 291 291 291 291 292 292 292 291 290 291 292 295 295 296 298 297 298 300 301 300 300 302 306 312 314
292 291 291 290 290 290 290 289 289 289 291 290 290 290 290 290 290 290 291 291 291 292 291 291 292 293 295 294 294 298 298 297 299 298 299 302 309 314
289 289 288 288 288 288 288 288 289 289 289 289 289 289 289 289 290 290 290 290 291 291 290 289 289 290 291 294 294 293 299 296 296 297 296 298 301 310
287 287 287 287 286 286 286 286 286 287 287 287 288 288 288 288 288 288 288 289 289 289 288 288 288 289 289 289 293 293 292 296 296 294 294 296 298 305
286 286 285 285 285 285 284 284 285 285 285 286 286 286 286 287 287 287 288 288 288 288 288 288 288 288 289 288 288 291 292 292 297 296 294 295 297 297
285 285 284 284 283 283 283 284 285 285 285 285 285 285 286 286 286 286 287 287 287 287 287 288 288 289 289 288 288 288 290 291 293 297 295 295 296 296
283 283 283 282 283 283 283 283 283 284 284 284 285 285 285 285 285 285 286 286 288 286 286 286 287 288 288 289 289 289 289 289 290 297 296 295 294 295
282 282 282 282 282 283 283 282 282 282 282 283 284 284 284 285 285 284 285 285 286 286 286 286 286 287 288 289 290 291 292 293 294 295 296 295 296 296
282 282 282 282 282 282 282 283 283 283 283 283 283 283 284 284 284 284 285 285 285 285 285 286 286 286 287 288 288 288 288 289 292 293 294 295 296 295
282 282 282 282 282 282 283 283 284 284 283 283 283 283 283 283 283 284 285 285 286 285 285 285 285 286 286 287 286 286 286 286 288 290 291 293 294 294
282 282 282 282 282 282 283 283 283 283 282 283 284 284 284 284 284 284 284 285 285 285 285 285 286 286 287 288 288 288 287 286 287 288 289 291 292 292
282 282 283 282 281 281 281 281 281 281 282 282 283 284 284 284 285 284 284 285 286 285 285 285 285 286 286 287 287 287 287 287 287 288 289 290 290 290
281 282 283 281 280 279 280 280 280 280 281 282 282 283 284 285 285 285 285 285 285 285 285 285 285 286 286 287 288 288 287 286 287 289 289 288 289 289
281 281 280 279 278 279 278 278 279 280 281 282 283 284 285 285 285 285 284 284 284 284 284 284 285 286 286 287 287 287 287 288 287 287 287 287 287 288
280 280 278 278 278 278 279 279 279 279 279 281 282 283 284 285 285 285 285 285 285 285 284 284 284 285 286 286 286 286 287 288 286 286 286 286 286 287
279 278 278 277 278 278 278 278 278 278 279 280 281 283 284 285 285 284 285 285 285 285 286 285 285 285 285 286 287 287 287 287 287 287 285 287 287 286
277 277 276 276 277 277 277 277 277 277 278 278 280 281 282 284 284 284 284 285 286 286 286 286 286 286 286 285 285 286 287 287 287 286 285 287 288 287
275 275 275 275 275 276 276 276 276 276 277 277 278 279 280 283 283 284 285 285 286 286 287 287 286 286 288 287 284 283 285 286 286 285 285 285 286 285
274 274 274 274 274 274 275 275 275 276 276 276 277 277 278 280 282 283 284 284 285 284 284 284 285 285 287 287 286 282 281 283 284 285 284 283 281 281
272 272 272 272 272 273 273 273 274 275 275 276 276 276 276 278 280 281 282 281 283 284 284 283 281 281 281 282 283 281 279 280 281 282 281 283 283 283
270 271 271 271 271 271 272 272 274 274 275 275 275 276 276 277 278 279 280 281 281 282 281 280 280 281 281 282 282 280 280 278 279 280 280 281 283 285
269 269 270 270 270 270 271 271 272 273 273 273 274 275 276 276 277 278 279 279 280 280 280 281 280 279 279 280 280 280 279 279 279 280 279 279 280 280

GFSNE_925_thetae_018.txt.gz
Theta_e
295 294 293 293 293 293 292 293 293 294 294 294 295 295 295 295 295 295 295 295 295 294 293 293 292 292 293 299 301 300 301 302 303 304 304 303 306 309
295 295 294 294 294 293 293 292 292 292 294 292 292 292 292 292 293 292 293 293 293 293 292 290 290 291 293 295 299 300 298 297 299 301 301 301 302 304
294 293 293 292 291 291 290 291 291 291 292 291 291 291 291 292 292 292 292 292 292 292 292 291 291 292 293 293 294 295 295 297 298 298 299 299 299 300
291 291 291 290 289 290 290 290 290 290 290 291 290 291 291 291 291 291 292 292 292 292 292 292 292 291 289 289 291 292 295 294 298 299 296 297 297 297
289 289 289 289 289 288 288 288 288 288 288 289 289 289 290 290 290 290 290 291 291 291 290 290 290 290 289 288 288 289 291 295 294 295 296 295 294 294
288 288 288 287 287 287 287 287 287 287 287 288 288 288 289 289 289 289 290 290 290 290 290 289 289 289 289 289 289 288 288 290 293 293 293 297 296 295
287 286 286 286 285 284 284 285 286 287 287 288 288 288 288 288 289 288 289 289 289 290 290 290 290 290 290 289 288 288 288 288 289 291 292 292 297 295
286 286 285 285 285 284 284 283 283 284 285 286 286 287 287 287 287 288 288 288 289 288 289 289 289 289 290 290 291 290 291 290 289 289 290 291 297 296
285 285 285 284 284 284 284 284 283 283 283 283 284 285 285 286 286 287 287 287 287 287 288 289 288 289 289 289 289 289 289 289 289 289 289 290 295 297
284 284 284 284 284 283 283 283 284 284 285 285 284 284 284 284 285 286 286 286 287 287 286 288 288 287 287 287 288 288 289 290 289 290 292 293 293 296
282 283 283 283 283 283 284 284 284 285 284 284 284 284 284 284 284 285 286 286 288 286 286 287 287 287 287 287 288 287 288 288 288 288 289 292 293 294
282 283 283 283 283 283 283 283 283 283 284 284 284 284 285 285 284 284 285 287 287 287 287 287 287 287 288 288 288 288 289 288 286 286 287 289 289 291
282 282 283 284 283 281 281 281 282 282 282 283 283 284 284 285 286 287 286 286 286 286 286 286 288 287 287 288 289 289 289 289 289 289 287 287 289 290
281 282 284 281 280 280 280 280 280 280 282 284 285 285 285 286 286 286 286 286 286 286 286 286 287 287 287 288 289 288 290 289 289 289 290 289 289 290
281 281 280 279 279 280 280 279 279 282 282 283 285 285 286 286 286 287 286 286 286 286 286 286 286 287 287 288 288 289 289 289 288 289 289 291 291 291
280 281 280 279 280 280 280 280 281 281 281 282 283 284 285 286 287 286 287 287 287 286 285 285 285 285 286 287 287 288 289 289 289 289 288 289 289 289
278 280 280 279 281 280 280 280 280 280 281 281 282 283 284 285 286 286 286 287 287 287 288 286 285 285 285 286 288 288 288 289 289 289 288 288 289 289
279 278 278 278 279 279 279 279 279 279 279 280 282 282 283 284 285 286 285 285 287 288 287 288 287 286 286 286 286 287 288 288 288 289 288 288 289 290
277 277 277 277 277 278 278 278 278 278 279 279 280 281 281 283 285 286 287 287 287 287 288 288 288 288 289 289 286 284 286 287 288 288 288 286 287 289
275 275 275 276 276 276 277 277 277 278 278 278 279 280 280 281 283 284 285 286 287 287 287 286 287 287 289 289 289 282 281 283 286 287 287 286 285 285
274 274 274 274 275 275 275 276 277 277 277 278 278 279 279 281 282 282 283 284 284 285 285 285 283 282 284 284 286 284 281 280 282 284 286 286 286 286
273 273 273 273 274 274 275 275 276 277 277 277 278 278 279 280 280 281 281 282 283 283 283 283 283 283 283 284 286 283 282 281 280 281 282 281 283 287
272 272 272 273 273 273 273 274 275 275 276 276 277 278 279 279 280 280 281 281 281 282 282 283 282 282 282 283 283 283 281 281 282 283 281 280 281 281

GFSNE_925_thetae_021.txt.gz
Theta_e
296 296 295 295 295 294 293 293 293 295 295 294 294 295 297 298 298 297 297 296 296 295 293 293 293 293 293 293 295 300 303 303 303 303 304 305 305 305
296 296 296 296 295 295 295 294 293 293 294 293 294 294 293 293 294 294 295 295 294 294 295 294 294 293 291 291 292 294 300 300 299 298 299 301 303 302
295 295 295 294 294 293 292 292 292 293 294 293 292 292 293 293 293 293 293 293 293 293 293 293 292 292 291 290 292 294 295 297 297 297 297 298 299 301
293 293 293 292 291 291 290 291 291 291 292 293 292 292 292 292 292 293 293 293 293 293 293 293 292 292 292 291 291 291 292 293 294 294 295 298 298 297
290 290 290 290 290 290 290 290 290 289 290 290 291 290 291 291 291 291 292 292 292 292 292 292 291 291 291 291 291 290 289 289 290 292 294 294 296 297
289 289 289 289 289 289 289 289 288 288 288 289 290 290 290 290 290 291 291 291 292 291 291 291 291 291 290 290 289 289 289 288 288 289 290 294 294 293
287 288 288 288 287 286 286 286 286 286 287 288 289 290 290 290 290 290 291 291 291 290 291 291 292 292 291 290 290 289 289 289 289 288 288 290 293 293
286 287 287 287 287 286 285 285 284 284 285 285 286 287 287 288 288 289 289 290 291 290 289 290 290 290 290 291 291 290 291 291 290 289 288 288 288 290
286 286 286 286 286 286 286 285 285 284 284 284 284 285 286 286 287 287 288 288 289 289 288 289 289 290 290 290 290 290 289 289 290 290 290 290 289 289
285 285 285 285 285 284 284 285 285 285 285 285 285 285 285 285 286 286 286 287 287 287 288 289 288 289 289 289 288 288 287 287 288 289 289 289 289 289
282 283 283 283 284 284 284 284 284 285 285 285 285 285 285 285 284 285 286 287 288 288 287 288 288 288 288 288 288 288 287 287 287 288 289 289 288 291
282 282 282 283 283 283 284 284 284 284 284 284 284 284 284 285 285 285 285 286 286 287 287 288 288 288 289 289 289 289 289 288 287 287 288 288 288 288
282 282 283 283 281 281 281 282 282 282 282 282 283 284 285 285 285 286 286 286 287 287 287 287 288 288 289 289 289 290 290 290 289 289 289 287 286 287
281 282 283 282 281 280 280 281 280 280 281 283 285 286 287 287 287 287 287 287 287 287 287 287 287 288 288 289 289 289 289 289 290 289 289 290 288 286
281 281 280 281 280 280 282 280 280 282 284 284 285 285 286 286 286 287 287 287 287 287 287 287 287 287 288 288 289 289 290 290 290 288 288 289 290 289
279 279 281 280 280 282 282 282 282 282 282 283 284 284 285 286 287 288 288 287 288 287 287 286 285 286 286 287 287 288 288 289 289 289 289 289 290 291
277 281 280 280 280 281 281 282 282 281 282 282 283 284 285 285 286 287 287 287 287 288 288 287 286 285 285 286 287 288 288 289 289 289 289 289 289 289
279 279 279 279 279 280 280 280 280 280 280 281 282 282 283 283 285 287 287 287 287 288 289 289 287 286 286 285 285 287 288 288 289 289 289 289 289 289
278 278 278 277 278 279 278 278 279 279 280 280 281 281 282 282 284 285 287 287 289 289 289 289 289 288 289 289 286 285 286 287 288 288 289 289 288 288
276 277 276 277 277 277 277 277 278 279 279 279 280 280 281 282 284 284 285 285 286 287 288 287 287 285 287 287 288 282 283 283 285 287 288 289 287 287
275 275 276 275 275 276 276 277 277 278 278 278 279 280 281 282 282 282 283 284 284 285 286 284 283 283 284 285 287 285 282 281 281 283 284 288 287 286
274 274 274 275 275 275 275 276 276 277 277 277 278 279 280 281 281 282 282 283 283 284 284 284 284 284 284 285 287 284 284 282 281 281 282 282 282 285
273 273 274 274 274 274 274 274 275 275 276 276 276 278 279 280 280 281 281 282 282 282 283 283 284 283 283 283 284 284 282 283 283 284 281 281 281 281

GFSNE_925_thetae_024.txt.gz
Theta_e
297 297 296 296 296 295 295 294 294 293 292 293 294 293 294 296 296 296 297 298 298 297 296 296 295 293 293 293 293 293 294 301 306 306 305 306 307 307
296 296 296 295 295 295 295 295 294 293 292 293 293 293 294 293 293 293 294 295 296 295 295 295 294 293 294 293 292 292 291 293 300 302 301 302 302 303
293 293 293 293 293 293 293 293 293 294 293 293 293 293 293 293 293 293 293 293 293 294 294 293 293 293 293 293 293 292 291 291 294 297 299 298 299 301
291 291 292 292 291 291 291 291 291 291 291 291 291 291 291 291 291 291 291 292 293 293 294 294 294 293 293 292 292 292 291 291 293 293 293 293 294 297
288 289 289 290 290 290 290 290 290 290 289 289 289 289 289 290 289 290 291 291 291 292 292 292 292 292 292 292 292 292 291 291 291 290 290 290 292 293
286 287 287 288 289 289 289 288 288 287 286 286 287 288 288 289 289 290 290 290 291 291 291 292 292 292 292 291 291 291 290 290 290 289 289 288 288 290
285 285 286 287 287 287 287 287 286 286 286 286 286 287 287 288 288 288 289 289 290 290 290 290 290 290 291 292 291 290 290 290 290 289 289 288 288 288
284 284 286 286 287 287 286 286 286 285 285 285 284 284 285 285 286 287 287 288 287 289 290 290 289 290 290 290 291 291 291 291 290 290 290 289 289 289
284 284 284 285 285 285 284 284 285 285 285 285 284 284 284 284 285 286 286 287 287 288 288 288 288 289 288 289 289 290 290 290 290 290 289 290 290 290
282 282 282 283 283 283 284 284 284 284 284 285 285 285 285 285 285 286 286 287 287 286 286 287 287 288 288 288 288 288 288 288 288 287 287 288 289 289
281 282 282 282 282 283 284 284 284 284 284 285 285 284 285 285 285 285 285 285 285 285 285 287 287 287 288 288 288 288 287 287 287 287 287 287 287 289
281 281 281 282 283 282 282 282 283 283 283 283 283 282 282 283 284 284 285 285 284 284 285 286 286 287 287 288 288 288 288 288 288 288 287 287 287 288
280 280 281 282 282 282 281 281 281 281 281 281 281 282 283 284 285 285 285 285 285 285 285 286 286 287 288 288 288 288 289 288 289 289 289 289 288 288
279 280 281 280 281 281 281 281 281 280 280 281 282 284 285 286 287 287 287 287 287 286 287 287 287 287 287 287 288 288 289 289 289 289 290 289 289 290
278 278 279 280 280 280 281 282 282 281 282 283 283 284 284 284 285 286 287 287 287 287 287 287 287 287 287 287 288 288 288 288 288 289 289 288 288 289
277 278 280 279 279 280 280 281 281 281 281 282 282 282 284 285 285 285 287 287 287 287 288 287 287 286 287 287 287 286 287 288 287 288 289 288 288 288
277 279 279 278 279 279 279 279 280 280 280 280 281 282 282 283 284 284 286 287 286 287 288 288 287 287 286 286 286 286 287 287 288 288 289 289 288 289
278 278 278 277 278 278 279 278 278 279 279 280 280 281 281 282 283 284 285 287 287 287 288 289 287 286 286 285 285 285 286 287 287 288 289 288 289 289
277 277 277 277 277 277 277 277 278 279 278 279 280 280 280 281 283 284 284 285 285 287 288 287 287 287 287 286 285 285 285 286 286 286 286 287 289 288
276 276 276 276 276 276 276 276 277 278 278 277 278 279 280 281 282 282 283 283 284 286 285 284 283 283 284 284 285 283 283 284 284 284 286 286 286 287
275 275 275 275 275 275 275 275 276 277 277 277 277 278 279 281 281 282 282 282 283 284 284 284 283 283 284 285 286 283 283 281 281 282 282 284 286 286
273 274 274 274 274 273 274 274 275 275 275 275 275 276 278 279 280 281 281 282 282 282 283 283 284 283 284 284 285 284 283 282 282 281 281 282 282 283
273 272 273 273 272 272 272 272 273 272 272 273 273 274 276 278 279 280 280 280 281 280 280 280 283 283 283 283 283 283 282 282 282 282 281 281 281 281

GFSNE_925_thetae_027.txt.gz
Theta_e
295 296 296 296 295 294 293 293 294 293 291 292 292 293 293 293 294 296 294 295 295 296 297 297 296 295 294 294 293 293 293 294 295 304 307 307 307 308
293 293 293 293 291 292 292 293 293 292 292 293 293 293 292 293 293 293 293 293 293 294 296 296 296 295 295 294 294 294 293 292 292 292 301 304 304 304
292 291 290 290 291 291 292 292 291 291 291 291 291 291 291 291 291 291 291 292 293 293 293 294 294 293 293 293 293 293 293 293 292 291 292 299 300 301
288 287 287 287 287 288 289 289 289 290 289 288 288 288 288 289 289 289 289 289 291 292 292 293 294 294 293 293 293 293 292 292 292 291 291 293 294 294
287 286 285 285 285 286 287 288 289 289 288 287 286 286 286 287 287 288 288 288 289 289 290 291 292 292 292 292 292 293 292 292 292 291 291 290 290 291
285 285 284 284 285 286 287 287 287 287 287 286 285 286 286 286 287 287 288 289 289 289 290 290 291 291 291 292 292 292 292 292 291 291 290 290 289 289
284 283 283 284 285 286 286 286 286 286 286 286 285 285 284 284 284 285 286 287 287 287 288 288 289 289 289 289 290 291 291 291 291 290 290 290 290 289
283 281 282 283 283 283 283 284 284 284 285 285 284 284 284 284 284 284 284 285 285 286 288 288 289 289 289 289 290 290 290 291 291 291 291 291 291 290
282 281 281 281 281 282 282 282 283 284 284 285 284 284 284 284 284 284 284 284 284 285 286 287 287 287 287 287 288 288 289 290 290 290 289 289 290 290
283 282 281 281 282 282 282 283 283 283 283 283 284 284 285 285 285 285 285 285 286 286 286 286 286 286 286 286 286 286 287 288 288 288 288 288 288 288
281 280 280 281 281 282 282 282 281 282 283 284 284 284 284 284 284 285 285 285 284 284 284 284 285 285 285 286 287 287 287 287 287 287 287 287 287 287
280 279 280 280 281 281 282 282 281 281 281 281 281 281 281 281 282 282 283 284 284 284 284 284 284 285 285 286 286 286 287 288 288 288 287 288 288 288
278 278 279 280 280 281 281 281 281 281 281 281 280 280 282 283 284 285 284 284 284 284 284 284 284 285 285 286 286 287 287 288 288 288 288 289 289 289
278 278 278 279 280 280 280 282 282 282 282 281 281 281 283 284 284 285 286 286 286 285 285 285 285 286 286 286 286 286 287 288 288 289 289 289 289 289
278 278 279 279 279 279 280 280 281 280 281 282 282 282 282 283 284 284 285 286 287 287 287 287 287 287 287 287 286 287 287 288 288 287 288 289 289 288
277 278 278 278 278 279 278 278 279 279 279 280 280 281 281 282 282 283 284 286 287 286 286 287 287 286 286 286 286 286 287 286 287 287 287 288 288 288
277 277 277 277 277 278 277 278 278 279 279 279 280 280 281 281 282 284 284 285 286 286 287 288 288 287 287 286 286 286 285 286 286 287 288 287 288 288
276 276 276 276 276 276 276 277 277 278 278 278 279 279 280 280 281 283 283 284 284 285 287 286 287 286 286 286 286 285 285 286 286 287 287 287 287 288
275 275 275 275 275 275 275 275 276 277 277 277 277 278 279 280 282 282 282 283 283 284 284 283 283 284 285 285 284 284 285 285 285 286 286 285 286 286
274 275 275 274 274 274 274 274 275 275 275 275 276 276 277 279 280 281 281 282 283 283 284 283 283 283 282 281 283 283 283 282 283 283 283 284 285 286
273 273 274 273 273 273 273 273 273 273 273 273 274 275 276 278 278 280 280 281 281 281 282 281 283 283 283 284 282 282 282 281 281 281 282 282 284 285
273 272 272 272 272 272 272 272 271 270 270 271 272 274 275 275 276 278 279 279 280 279 279 281 283 283 283 283 283 283 282 282 282 281 281 281 282 282
273 272 272 272 271 271 271 271 271 269 269 270 271 273 274 274 275 276 277 278 278 278 278 279 281 282 283 283 283 282 282 282 282 282 281 280 281 281

GFSNE_925_thetae_030.txt.gz
Theta_e
293 293 293 292 292 292 292 292 290 293 293 292 292 291 291 292 292 292 295 294 293 295 297 297 297 297 296 294 294 293 293 294 294 295 302 307 307 307
293 293 291 289 288 288 289 291 291 291 292 291 291 291 291 290 290 290 291 293 293 293 293 294 294 296 295 295 295 294 294 294 294 293 293 297 303 304
289 287 287 286 286 285 285 286 287 289 290 289 289 289 289 289 289 289 289 289 289 291 293 293 294 293 294 294 294 293 293 293 293 292 292 291 292 300
287 286 286 286 285 285 285 285 286 287 288 287 288 288 288 287 287 287 287 287 288 288 288 291 293 293 293 293 293 293 293 293 292 292 292 291 290 293
286 285 285 284 284 284 284 285 286 287 287 287 286 286 286 285 285 285 287 288 288 289 289 290 290 291 291 293 293 293 293 293 293 292 292 291 291 290
285 284 283 282 283 284 285 285 285 285 285 285 285 285 285 285 285 284 284 284 285 286 288 288 289 290 290 291 291 292 292 292 292 292 292 291 291 290
284 283 282 281 282 283 283 283 284 283 284 284 284 284 284 284 284 284 283 284 284 284 285 286 288 289 289 289 289 290 291 292 292 292 291 291 290 290
283 283 282 282 281 281 281 282 282 283 283 284 284 284 284 284 284 284 283 283 282 284 286 286 287 286 287 288 288 289 290 290 291 291 291 291 291 291
283 282 282 281 280 280 281 281 282 282 283 283 284 284 284 284 284 284 283 283 283 284 285 285 285 286 286 286 286 286 287 288 289 290 290 290 290 289
281 280 280 280 280 280 281 282 282 281 282 283 283 283 283 283 284 284 284 284 284 284 285 285 285 285 285 285 286 285 286 286 286 287 288 288 288 288
279 279 279 279 279 280 281 280 282 282 281 281 282 283 283 283 284 284 284 284 283 283 284 284 284 284 284 284 284 284 285 286 287 287 287 287 287 287
278 278 278 279 279 280 280 281 281 281 281 280 281 281 281 281 281 281 282 282 282 283 283 283 283 283 283 284 284 284 285 285 287 287 287 287 287 287
277 277 278 278 280 280 280 280 281 281 281 282 281 281 281 282 283 283 284 283 283 283 284 284 284 284 284 284 285 286 287 286 286 288 288 288 288 288
277 278 278 279 279 279 279 280 280 280 281 281 281 281 282 283 283 284 285 285 285 285 285 285 284 284 284 285 285 286 286 286 286 288 288 288 289 289
278 278 278 278 278 278 278 279 279 279 279 280 280 281 281 282 282 283 284 285 285 286 286 286 285 285 285 286 286 286 286 286 287 288 288 288 288 288
277 277 276 276 276 277 277 277 278 278 278 279 279 280 280 281 282 283 284 285 285 286 286 286 286 286 285 285 285 285 286 287 287 287 286 286 287 287
276 275 275 275 275 276 275 276 276 277 277 278 278 279 279 280 281 282 283 284 284 284 286 286 287 286 286 285 285 285 285 286 285 285 286 286 287 286
275 275 275 274 274 274 274 275 275 275 275 276 276 277 278 279 281 282 282 283 283 283 283 283 285 286 285 285 285 285 285 284 285 286 286 286 286 286
273 274 274 274 273 273 273 273 273 273 274 274 275 275 276 278 279 280 281 282 282 283 283 283 283 283 281 280 284 284 283 284 284 285 285 285 285 285
273 273 273 273 272 272 272 272 272 271 272 273 274 275 275 276 277 279 279 280 280 280 281 282 283 283 282 279 282 284 282 281 282 282 282 283 283 284
273 272 272 272 272 272 271 271 270 269 270 271 272 273 274 274 276 277 278 279 279 278 279 280 282 283 283 283 280 282 282 281 281 281 281 281 282 284
273 273 272 272 271 271 271 270 270 269 269 270 272 272 273 274 274 275 276 276 277 277 277 280 282 282 283 282 282 282 282 282 282 281 280 281 281 279
274 273 272 271 271 270 270 269 269 268 268 269 271 272 272 272 273 274 275 275 275 276 277 278 280 282 282 282 282 282 282 282 282 282 281 280 280 280

GFSNE_925_thetae_033.txt.gz
Theta_e
292 292 293 292 289 288 287 290 291 291 290 291 291 290 290 290 290 289 290 291 293 294 294 293 297 298 297 297 296 294 294 294 294 294 295 306 307 308
292 291 290 287 287 286 286 285 286 289 289 290 291 289 289 289 289 289 289 289 289 290 293 293 293 294 295 295 295 295 294 293 294 293 293 294 302 305
288 287 287 286 286 286 286 285 284 285 286 287 287 288 288 288 288 288 288 288 288 288 288 288 291 293 293 295 294 294 295 293 293 293 293 293 292 294
287 286 286 286 285 284 283 284 284 285 285 285 286 287 288 287 286 286 286 285 286 287 287 287 288 290 293 293 293 293 293 294 293 293 292 292 291 291
286 285 284 284 282 282 282 283 284 285 285 285 285 285 285 285 285 285 285 284 284 286 288 289 289 289 290 291 293 293 293 293 293 293 292 292 291 291
284 284 283 282 281 282 282 283 283 283 283 283 284 284 284 285 285 284 284 284 283 283 285 287 287 288 290 290 291 292 293 293 292 293 293 292 291 291
284 284 283 282 283 282 281 281 281 282 282 282 283 283 284 284 284 284 284 283 284 284 284 284 285 287 288 289 289 289 290 292 292 292 292 292 291 291
284 283 282 282 281 281 281 281 281 282 282 282 282 283 283 283 283 284 283 283 282 284 284 285 286 286 286 286 287 288 289 290 291 291 291 291 291 291
281 280 280 280 279 279 279 280 281 281 282 282 282 282 283 283 283 283 283 283 283 284 284 284 284 284 285 285 286 286 286 287 288 289 290 291 291 291
278 278 278 278 279 279 280 280 281 280 281 281 281 281 282 283 283 283 283 283 283 283 283 283 284 284 284 284 284 285 285 285 286 287 288 290 290 290
278 277 278 278 278 279 280 280 280 281 281 281 281 281 281 282 283 283 283 283 283 283 283 283 283 283 283 283 283 283 284 284 285 286 286 286 287 288
277 277 278 278 279 280 280 280 280 281 281 281 281 281 281 280 280 281 281 282 282 281 282 282 282 283 283 284 284 284 283 284 284 284 285 286 287 287
277 277 278 279 279 279 279 279 280 280 280 281 281 281 281 281 282 282 282 281 281 282 283 283 283 283 283 284 284 285 285 285 285 286 287 288 287 287
277 277 278 278 278 278 278 278 279 279 279 279 280 281 281 281 282 283 283 284 284 284 284 284 284 284 283 284 284 285 286 286 286 286 286 288 288 288
277 277 277 277 277 277 277 277 277 278 278 279 279 280 280 281 281 282 283 284 285 285 284 284 284 284 284 284 285 285 285 286 286 286 286 287 288 288
275 275 275 275 275 275 275 276 276 277 277 277 278 278 279 280 281 282 283 284 284 285 286 285 285 285 285 285 285 286 286 285 286 286 287 287 286 286
274 274 274 274 274 274 274 274 274 274 274 275 276 276 277 279 280 282 282 283 283 283 284 285 285 285 285 285 285 285 285 285 285 285 285 285 286 286
273 274 273 273 273 273 273 273 273 272 273 274 274 275 275 277 279 280 281 282 283 283 282 283 284 285 285 285 285 284 284 284 284 284 285 285 285 285
272 273 273 272 272 272 271 271 271 270 271 273 273 274 275 276 277 278 279 280 280 281 281 283 283 283 282 282 283 283 282 283 284 284 285 285 285 285
273 272 272 272 271 271 271 271 270 269 270 272 273 273 274 274 275 276 277 278 278 278 279 280 281 281 281 278 282 283 282 281 281 282 282 282 283 283
273 272 272 271 271 270 271 270 270 268 269 271 272 272 273 273 274 274 275 276 277 277 277 278 280 282 283 282 279 282 282 281 281 281 280 279 280 282
274 273 272 271 271 270 270 269 269 268 268 269 271 272 272 272 273 273 274 274 275 275 276 278 280 282 282 282 281 281 281 281 281 281 280 280 280 278
274 273 273 272 271 270 270 270 269 268 268 268 270 271 271 271 272 273 274 274 274 275 275 277 279 280 281 281 281 282 282 282 281 282 281 280 280 280

GFSNE_925_thetae_036.txt.gz
Theta_e
292 292 292 292 289 287 286 286 289 287 287 287 288 288 289 289 289 289 289 289 289 289 292 293 294 294 297 298 298 297 296 296 295 295 300 307 309 310
291 290 289 288 287 286 286 285 285 286 286 286 286 287 288 288 288 289 289 288 289 288 288 288 289 292 293 296 295 294 295 296 294 293 294 302 307 307
288 287 287 286 286 286 285 284 283 283 284 284 284 285 285 286 288 288 288 287 287 287 287 288 288 288 292 293 295 295 295 294 294 294 293 293 295 303
287 286 286 285 284 284 282 282 282 282 283 284 284 285 285 286 287 286 286 286 285 285 286 287 288 289 288 292 293 293 294 294 294 294 293 292 295 294
286 285 284 284 283 282 281 282 281 282 283 284 284 284 284 285 285 285 285 285 285 284 284 286 287 288 289 290 291 293 292 293 293 293 292 292 292 291
285 284 284 283 283 282 282 282 281 281 281 281 282 282 283 283 284 284 284 285 284 284 284 284 284 287 287 289 291 292 293 293 293 293 293 292 291 291
284 284 283 282 283 282 282 282 281 280 281 281 281 282 282 283 283 283 283 284 284 283 283 284 284 284 287 288 289 290 292 293 293 293 292 293 292 291
282 281 280 279 280 280 280 280 280 280 281 281 281 281 282 282 282 282 282 282 283 283 283 284 285 285 286 287 287 287 288 290 291 292 292 292 292 291
279 278 278 278 278 278 278 279 280 280 281 281 281 282 282 282 282 282 282 282 282 283 283 283 283 284 284 284 285 285 286 287 288 289 291 291 292 291
277 277 277 277 278 279 280 280 280 280 280 280 281 281 281 281 281 282 282 282 282 283 282 283 283 283 283 283 284 284 285 285 286 287 288 289 290 291
277 277 278 278 278 280 280 280 280 280 281 281 281 282 282 281 281 282 282 282 283 283 283 283 283 283 283 282 283 283 284 284 285 285 286 287 288 290
277 277 277 278 279 279 280 279 279 280 279 280 281 281 281 281 281 281 281 281 282 282 282 282 282 282 282 283 284 284 284 283 284 284 285 285 286 287
277 277 277 278 278 278 278 278 279 278 279 279 279 280 281 281 282 282 281 280 280 281 281 282 283 283 283 283 284 284 285 285 283 284 284 284 285 286
276 276 277 277 277 277 277 277 277 277 277 278 278 279 280 280 280 281 282 283 283 282 282 282 283 283 283 283 283 284 285 286 285 284 285 286 287 287
275 275 275 275 275 275 275 276 276 276 276 276 277 277 278 279 280 281 282 283 284 284 284 284 283 283 284 284 284 285 285 286 286 286 286 286 286 287
274 274 274 274 273 273 273 274 274 274 274 274 275 276 277 278 280 281 282 282 283 284 285 285 284 284 284 284 284 285 285 285 286 285 286 286 287 287
273 274 273 273 272 272 272 272 272 271 272 273 274 274 275 277 279 280 281 282 282 282 283 284 285 285 285 285 285 285 285 285 285 285 285 285 286 286
273 272 273 272 272 272 271 271 270 269 271 272 273 273 274 275 277 278 279 280 280 281 281 282 283 285 285 284 285 284 284 284 284 284 284 283 284 285
273 272 272 272 271 271 271 270 270 269 270 271 272 273 274 275 275 276 277 277 278 279 279 280 282 282 284 284 282 283 282 282 283 283 284 284 285 285
273 273 272 271 271 270 270 270 270 269 269 271 271 272 272 273 274 274 275 275 276 277 277 278 279 280 281 281 282 282 282 281 281 281 282 282 282 283
274 273 273 272 271 270 270 269 269 268 268 269 271 271 271 272 272 273 274 274 274 274 275 276 278 280 281 280 280 281 281 281 281 281 280 278 280 281
275 274 273 273 271 271 270 270 269 269 268 268 270 271 271 271 271 272 273 273 273 273 274 276 278 280 281 281 280 280 281 281 281 281 280 280 279 281
277 275 274 273 272 271 270 270 270 269 268 268 269 270 270 270 271 272 272 273 272 273 273 275 277 279 279 279 280 280 281 281 280 281 281 280 280 280

GFSNE_925_thetae_039.txt.gz
Theta_e
292 293 292 292 291 289 289 288 288 290 289 288 288 288 288 288 288 289 289 289 289 289 288 288 289 290 293 295 298 299 298 299 302 307 307 309 310 312
292 291 290 289 288 288 287 287 287 287 289 287 286 286 286 286 287 287 288 288 288 288 287 287 288 288 289 293 295 296 295 295 295 295 303 307 309 310
289 288 288 287 287 287 286 286 285 285 286 285 285 285 286 286 286 287 287 288 288 287 286 286 287 288 288 289 293 294 293 294 295 295 294 296 305 307
287 287 287 286 286 286 285 284 284 284 284 284 284 284 285 285 285 286 287 287 287 287 286 285 285 287 288 289 291 293 294 294 294 294 294 294 295 302
286 286 286 285 285 285 284 284 283 283 283 283 283 283 283 283 284 285 286 286 287 286 285 285 284 284 287 288 290 292 293 293 294 294 293 294 293 296
286 285 285 284 284 283 283 283 283 283 282 282 282 282 282 283 283 283 284 285 286 286 285 285 284 284 284 286 288 291 293 292 292 293 293 292 293 293
284 283 282 282 281 281 281 281 281 281 281 281 281 281 282 282 282 283 283 284 285 285 285 285 285 285 286 286 288 290 292 293 293 293 293 293 292 292
281 280 280 279 279 279 279 279 279 280 281 281 282 282 282 282 282 283 283 283 285 284 285 285 285 286 286 287 287 287 288 290 292 292 293 293 292 292
279 279 279 279 279 279 279 280 281 281 281 281 282 282 281 282 282 282 283 283 283 283 284 284 285 285 285 285 285 285 286 287 288 290 292 293 293 293
279 279 279 279 279 279 281 280 281 280 281 281 282 282 282 282 282 282 282 283 283 283 283 284 284 284 285 285 284 284 284 285 286 287 288 290 292 292
279 279 279 278 278 279 279 280 280 280 280 280 280 281 281 282 282 282 282 283 284 284 284 283 284 285 284 284 285 284 283 284 285 286 286 287 288 290
279 278 278 278 278 278 279 279 279 279 279 279 280 280 281 282 281 281 282 282 283 284 283 283 284 284 286 285 285 285 285 283 284 284 285 285 286 289
278 278 277 277 277 277 277 278 278 278 279 279 279 280 281 281 282 282 282 282 282 283 283 282 284 285 285 286 286 286 286 286 285 284 284 285 285 286
278 277 276 276 276 276 276 276 276 276 277 278 279 279 280 280 281 281 282 282 282 283 283 282 284 284 285 286 286 286 286 286 286 286 286 286 284 285
277 275 275 274 274 275 274 275 275 275 276 277 277 278 278 279 280 281 282 283 283 283 283 283 283 284 285 286 286 286 286 287 286 286 286 286 286 287
276 275 274 274 273 274 274 274 274 273 274 275 276 277 278 279 280 281 283 283 284 285 284 284 284 284 285 285 286 286 286 287 286 285 285 285 286 286
275 274 274 274 274 274 274 273 272 272 273 274 275 276 277 278 279 280 281 283 284 284 284 284 284 284 285 285 287 287 287 286 286 286 285 286 286 286
275 275 274 273 273 273 273 273 272 271 271 273 274 274 275 277 278 279 280 281 282 282 283 283 284 286 285 284 285 286 286 285 285 285 285 285 286 287
276 275 274 273 273 273 272 272 272 271 270 272 273 273 273 275 277 278 278 279 280 281 281 281 283 284 286 287 284 283 285 284 284 285 285 285 285 286
276 275 275 274 273 273 272 272 271 270 270 270 272 271 272 273 275 276 276 277 277 278 279 280 281 281 283 284 284 283 282 282 283 284 284 283 283 284
277 276 275 274 273 272 272 271 270 270 269 269 271 271 271 271 273 274 274 274 275 277 277 279 279 279 279 280 282 283 281 281 281 282 281 283 283 283
278 277 276 274 274 273 272 271 271 271 270 270 270 270 271 271 272 272 273 274 275 275 276 277 278 280 281 282 283 282 283 281 281 281 281 280 282 284
278 277 276 275 274 273 272 271 271 271 270 269 269 270 270 271 271 272 272 273 273 274 275 276 277 279 280 280 281 282 282 281 281 282 281 280 279 279

GFSNE_925_thetae_042.txt.gz
Theta_e
295 294 293 292 291 291 290 290 290 292 291 290 289 289 289 289 288 288 288 289 288 289 288 288 288 288 289 290 293 296 297 298 304 306 308 311 312 312
293 292 291 291 291 290 289 289 289 289 291 288 288 288 287 287 287 287 287 288 288 288 288 288 287 287 287 288 291 293 295 296 297 303 304 306 310 311
292 291 291 290 290 289 289 288 288 288 288 287 287 287 287 287 287 287 287 288 288 289 289 287 286 285 286 287 288 292 292 294 295 296 298 304 305 308
291 290 290 289 289 288 288 287 287 287 286 287 286 286 285 285 285 285 286 286 288 289 288 287 286 285 285 286 288 291 293 293 293 294 294 296 302 299
290 290 289 288 288 287 287 286 286 285 285 285 285 284 284 284 284 285 285 285 286 287 287 287 286 285 285 284 287 288 292 293 293 294 294 295 295 296
289 288 287 286 286 285 284 284 284 284 284 284 284 283 283 283 284 284 284 285 286 286 287 287 286 286 285 284 285 287 288 292 292 294 293 294 294 294
287 285 284 283 281 281 281 282 282 282 282 282 283 283 284 284 284 284 284 284 285 285 286 287 287 288 288 287 286 288 289 291 293 292 293 293 293 293
285 283 283 282 282 280 281 280 280 281 281 282 283 284 284 283 284 284 284 285 286 285 286 286 287 287 287 288 288 288 288 290 292 293 293 293 293 292
283 283 282 282 281 281 281 281 282 282 282 282 282 283 284 283 283 283 284 284 284 284 285 285 286 287 287 287 286 286 287 286 288 291 293 293 293 293
282 282 282 282 281 280 280 280 281 282 281 281 282 281 282 282 283 284 284 284 284 284 284 285 285 285 286 286 286 285 285 286 286 287 289 292 293 293
282 282 281 280 279 278 279 280 281 280 281 280 280 280 281 281 282 282 283 284 284 284 285 285 285 285 286 286 287 286 285 284 285 286 286 287 289 292
282 282 281 279 277 278 278 279 280 280 279 280 280 281 281 282 282 283 283 284 284 285 284 285 285 285 286 287 287 287 287 285 283 284 285 286 286 290
281 281 280 278 277 277 277 278 278 277 278 279 280 281 281 281 282 283 283 284 284 284 284 284 285 285 286 287 287 287 288 288 287 285 284 285 286 287
280 280 279 277 276 276 276 275 276 277 278 279 279 280 281 281 281 282 282 283 284 284 285 285 285 285 286 287 287 287 288 288 288 288 287 286 285 285
279 278 276 275 276 276 276 275 276 277 277 278 279 279 280 281 281 283 283 284 284 285 285 284 284 285 286 287 288 288 288 288 288 287 287 288 287 287
280 278 277 275 276 276 277 277 276 275 275 277 278 278 279 280 281 282 283 284 286 286 285 285 285 284 286 286 287 287 287 288 288 287 286 287 287 288
278 278 279 278 278 278 277 277 276 275 276 276 277 278 278 279 280 281 282 283 285 286 286 285 285 285 286 286 287 287 288 288 288 288 287 287 286 287
278 280 279 279 278 277 277 277 277 276 274 275 276 277 277 278 279 280 281 282 283 283 284 284 285 287 286 285 285 287 288 287 287 287 287 286 287 288
279 281 280 279 278 277 277 276 276 275 274 274 275 276 276 276 278 279 279 280 281 282 282 283 284 284 288 290 285 284 287 286 286 286 287 287 287 288
279 280 280 279 279 278 277 276 276 275 275 274 274 275 275 275 277 277 278 278 279 280 281 282 283 283 284 285 285 284 282 284 285 286 286 285 286 285
281 281 280 280 278 278 277 276 275 275 273 273 274 274 275 275 275 276 276 277 277 279 279 281 281 279 281 282 284 285 282 281 282 283 284 285 286 286
281 281 281 280 279 278 277 276 275 275 275 274 274 274 274 274 275 275 276 276 277 277 278 279 280 281 282 283 285 284 284 282 281 281 281 281 283 287
282 281 281 280 279 278 277 276 276 275 275 273 273 273 273 274 274 275 275 275 275 276 277 278 280 281 282 282 282 284 283 283 284 283 281 280 280 280

GFSNE_925_thetae_045.txt.gz
Theta_e
296 295 295 294 293 293 292 292 292 293 292 291 291 290 290 289 289 289 289 289 289 288 288 288 288 289 289 289 290 292 293 294 297 297 300 306 309 313
295 295 294 293 293 292 292 291 291 290 292 290 290 289 289 288 288 288 288 288 288 288 289 288 288 288 288 286 287 287 292 294 294 296 296 300 305 308
294 294 293 293 292 291 291 290 290 289 290 289 288 288 288 288 287 287 287 287 287 287 288 289 289 287 287 286 286 286 288 290 293 294 296 296 301 305
293 292 292 291 291 290 289 289 289 288 288 288 288 287 287 286 286 286 286 286 286 287 287 288 287 287 287 286 286 285 287 289 292 293 294 296 297 304
292 291 291 290 289 288 288 287 286 286 286 287 286 286 286 285 285 285 285 286 286 286 286 286 287 287 286 286 285 285 285 288 291 292 293 294 296 300
291 290 288 288 287 286 284 284 284 284 285 284 284 284 284 284 285 285 285 285 286 286 286 287 287 288 287 286 286 285 284 287 288 291 293 294 294 294
288 288 287 285 284 282 282 282 283 283 283 283 283 284 284 285 285 285 285 285 285 285 285 286 286 288 289 289 287 287 287 288 288 291 292 293 293 293
287 286 285 285 284 283 282 282 281 281 282 283 284 284 284 284 285 285 285 285 286 285 286 286 287 288 288 289 288 288 288 288 290 292 292 292 293 293
286 285 285 284 284 283 282 281 281 281 282 282 283 283 284 284 283 284 284 284 285 285 285 286 286 287 287 288 287 286 287 287 288 289 291 293 293 293
286 285 284 284 283 281 280 280 281 281 282 282 282 282 281 281 281 282 283 283 284 284 284 286 285 286 286 286 286 287 286 286 286 286 288 290 293 293
285 284 284 283 281 280 278 280 280 280 281 281 280 281 281 281 281 282 283 284 285 285 285 285 286 286 286 286 287 287 287 286 285 285 286 287 289 292
284 284 283 281 279 278 278 278 279 280 279 279 280 281 281 283 282 283 284 285 286 285 285 285 286 286 287 287 287 287 287 287 286 284 285 286 287 289
283 283 283 281 279 277 277 277 278 277 278 279 280 281 282 282 282 282 283 283 284 285 285 285 285 286 286 287 288 288 288 288 288 286 284 284 286 287
282 283 282 279 277 277 277 278 276 277 279 279 280 281 281 281 282 283 283 284 284 284 284 285 286 286 286 287 288 289 289 289 289 288 288 286 284 285
282 281 279 279 278 278 278 277 277 279 278 278 279 280 280 281 281 283 283 284 285 285 285 285 285 286 286 286 287 288 288 289 289 289 288 289 288 287
282 282 280 280 280 279 279 280 279 279 277 278 279 279 280 280 281 282 282 283 285 287 286 285 285 286 286 286 287 288 288 289 289 288 288 288 288 289
281 280 281 282 281 281 280 280 279 279 278 277 278 279 279 279 280 281 282 282 284 285 286 286 286 285 285 286 287 288 289 288 289 288 287 287 288 288
280 281 282 282 282 281 281 280 280 279 278 277 277 278 278 278 278 280 281 281 283 283 284 284 285 285 287 286 285 287 288 288 288 287 287 288 288 288
280 281 282 282 282 281 281 280 279 279 277 278 277 278 278 277 278 279 280 280 281 281 282 283 284 285 286 289 285 284 287 287 287 287 287 288 288 287
281 282 282 282 282 281 281 280 279 278 278 277 277 277 277 277 278 278 278 278 279 280 281 282 284 282 282 283 284 284 283 285 286 286 287 287 286 285
283 283 283 283 282 281 281 280 279 278 277 276 277 277 277 277 278 277 278 278 278 279 279 281 281 280 281 282 283 285 282 282 283 283 284 286 287 287
283 283 283 283 282 282 281 280 279 278 278 278 277 276 277 276 277 277 277 277 277 277 278 279 281 282 283 284 285 286 285 282 281 281 281 282 283 286
284 283 283 283 282 281 280 280 279 279 278 277 276 276 276 276 277 277 277 277 277 277 277 278 280 281 283 283 283 284 284 284 283 283 281 281 281 280

GFSNE_925_thetae_048.txt.gz
Theta_e
296 296 296 295 295 294 293 293 293 291 291 291 291 290 290 289 289 289 288 288 288 288 288 288 288 289 290 290 290 290 290 290 292 294 296 298 300 303
296 295 295 294 294 293 293 292 291 291 290 290 290 289 289 289 288 287 287 287 287 287 287 287 287 288 289 290 289 288 288 289 290 294 295 297 298 299
294 294 293 293 292 292 291 291 291 290 289 288 288 288 287 287 286 286 286 286 286 286 287 286 287 287 289 289 287 287 287 286 286 289 294 295 296 297
293 293 292 291 291 291 289 288 287 286 286 286 286 286 286 285 286 285 285 285 286 286 285 286 286 287 287 287 288 288 286 285 285 287 290 293 294 295
292 292 291 290 288 288 286 285 284 284 284 285 284 284 284 284 284 285 285 285 286 286 286 286 286 287 287 288 288 287 286 285 285 286 288 292 293 294
291 290 289 288 286 285 284 283 283 283 283 283 283 283 283 284 284 285 285 285 285 285 285 285 286 286 287 288 288 286 287 286 285 285 287 292 293 293
289 288 287 286 285 284 283 283 282 282 282 281 282 283 283 284 284 284 284 284 284 285 285 285 286 286 286 287 288 288 289 287 287 287 288 292 293 293
287 287 286 285 285 284 283 282 281 281 281 282 282 283 283 283 284 282 282 283 283 284 284 285 285 286 286 286 288 289 288 288 288 288 290 291 292 293
287 286 285 285 284 284 282 281 280 280 281 281 282 283 283 282 281 281 281 282 282 283 283 284 284 285 285 286 287 287 286 286 286 287 288 290 292 293
286 286 285 285 283 282 281 280 279 280 280 281 281 281 280 280 281 281 282 282 282 283 284 284 284 285 285 285 286 286 287 286 286 286 286 287 289 293
285 285 285 284 283 282 280 277 278 279 279 279 279 279 280 281 281 282 282 283 283 284 284 285 285 285 286 285 285 286 286 287 287 286 285 287 287 290
285 284 284 283 281 280 278 277 278 278 278 277 279 280 281 281 282 282 283 283 284 283 284 284 285 285 286 287 286 287 287 287 287 286 285 285 286 287
283 283 283 282 281 280 277 277 278 278 277 278 279 280 281 281 281 281 282 283 283 283 283 284 285 285 286 286 287 287 288 288 288 288 287 284 285 286
282 282 283 282 281 279 278 278 278 278 278 279 278 280 279 280 280 281 282 283 283 284 284 285 285 285 285 286 286 287 288 288 288 288 288 287 284 285
281 282 282 281 280 280 280 279 278 279 279 278 278 279 279 279 280 281 281 282 282 284 286 285 285 285 285 286 286 286 288 288 288 289 288 289 288 286
282 282 282 281 281 281 281 281 280 280 279 278 278 278 279 279 279 280 280 281 282 284 285 286 285 285 285 286 286 286 287 288 288 288 288 288 288 289
283 282 281 281 283 282 282 281 280 280 279 278 277 278 279 278 278 278 280 281 282 283 283 284 284 285 285 285 285 286 287 287 288 288 286 287 287 288
281 281 281 282 283 282 282 281 281 280 279 278 278 278 278 278 278 278 279 280 280 281 281 282 283 284 285 285 285 285 286 287 288 287 287 287 288 288
281 281 280 281 283 282 281 281 281 280 279 278 278 277 278 277 278 278 278 279 279 279 280 281 283 282 283 283 284 283 285 286 287 287 287 287 287 287
282 281 281 282 283 282 282 281 280 279 279 278 277 277 277 277 278 278 277 278 278 278 279 280 281 280 280 280 282 283 283 284 285 286 286 286 285 285
283 282 282 282 283 283 282 281 280 279 278 278 277 277 277 277 277 277 277 277 277 277 278 279 279 280 282 282 282 283 283 282 283 284 284 285 286 286
283 284 284 283 283 283 282 281 280 279 278 278 278 277 276 277 276 277 277 277 277 277 277 277 278 280 282 284 284 284 282 281 281 281 282 282 283 282
284 284 284 283 283 282 282 281 281 280 279 278 278 277 277 276 276 277 277 277 277 277 275 275 277 280 281 283 283 284 283 282 282 282 281 281 281 281

GFSNE_925_thetae_051.txt.gz
Theta_e
295 294 295 295 295 294 294 293 292 290 290 290 290 289 289 289 288 288 288 287 287 286 286 286 287 287 288 288 289 289 290 291 290 290 291 293 295 296
293 294 294 294 293 293 292 292 291 290 289 289 287 286 286 286 286 286 286 285 285 285 285 286 286 287 287 288 288 288 290 290 289 289 289 290 294 295
293 294 293 292 292 291 290 289 287 285 284 284 284 285 285 285 285 284 285 284 285 285 285 285 286 285 286 286 286 287 289 289 289 288 288 289 292 294
293 292 291 291 290 288 288 286 285 284 283 283 283 283 283 283 283 283 283 284 284 285 285 285 285 286 286 286 287 287 287 287 287 286 286 287 289 293
292 291 291 290 288 287 286 285 284 283 282 282 282 281 282 282 282 283 283 284 284 284 284 285 285 285 285 285 286 287 287 288 288 286 286 285 286 291
290 289 289 287 286 285 285 284 283 282 282 281 281 281 281 282 282 283 283 283 282 282 282 283 284 285 285 285 286 286 287 288 287 287 286 285 287 292
288 287 287 286 285 285 284 283 282 282 281 281 281 281 281 281 282 283 281 281 281 281 282 283 283 282 283 284 285 286 287 288 289 289 287 289 290 292
286 287 286 286 285 284 283 282 282 280 280 280 281 281 281 282 281 281 280 280 280 281 282 281 282 283 283 284 285 286 286 287 288 287 287 288 290 291
286 286 286 285 285 284 283 283 282 280 279 280 280 280 281 280 280 280 280 280 281 281 281 282 283 284 284 284 284 285 286 287 286 286 286 286 288 291
285 286 285 285 284 283 283 282 281 277 278 279 279 278 278 279 280 281 281 281 281 282 282 283 284 284 285 285 285 285 285 286 286 286 286 285 287 289
285 285 285 284 283 282 282 281 278 276 278 278 278 279 279 280 281 282 282 282 282 282 282 283 284 284 285 285 286 286 286 286 286 287 287 286 286 287
284 284 284 283 282 282 281 279 277 277 278 277 278 278 279 280 280 280 281 281 282 282 282 283 283 284 285 285 285 286 286 287 287 287 287 286 284 286
284 283 283 283 282 281 280 278 278 278 278 278 278 278 279 279 279 279 280 281 282 282 283 283 284 284 285 285 285 286 286 287 288 287 287 287 285 285
284 283 282 282 282 281 280 279 279 279 279 279 278 278 278 279 279 279 279 280 281 282 283 284 284 284 285 285 285 285 286 287 288 288 288 288 286 284
284 283 282 281 281 281 281 280 280 279 279 279 279 278 277 278 278 278 278 280 280 282 283 284 285 285 285 285 285 285 286 287 288 288 288 288 288 284
284 283 282 282 282 281 282 281 281 280 280 279 278 277 277 278 278 277 278 280 280 280 281 282 283 284 284 284 285 285 285 287 286 288 288 288 288 287
285 283 282 282 281 281 282 281 281 280 280 279 278 278 277 278 277 278 278 279 279 279 279 281 283 284 284 285 284 285 285 286 287 288 286 287 287 288
283 282 282 281 281 281 282 282 281 281 280 279 278 278 277 277 277 278 278 278 278 278 278 279 281 281 282 284 283 284 285 286 287 287 287 287 287 287
283 282 281 281 280 280 282 282 281 281 279 279 278 278 277 277 277 277 277 277 277 277 278 279 280 280 281 280 281 283 283 285 286 287 286 287 286 286
283 282 282 281 281 281 282 282 281 280 279 279 278 277 277 277 277 277 277 277 277 277 277 277 277 278 280 279 281 281 283 282 284 285 285 285 285 285
283 282 281 282 282 281 281 282 282 281 280 279 278 277 277 276 277 276 277 277 277 277 276 276 276 279 280 282 281 283 283 282 282 282 283 285 285 285
283 282 282 282 282 282 282 283 282 281 280 279 278 278 277 276 276 276 277 277 277 276 275 275 277 279 280 283 282 283 282 281 281 281 281 282 283 281
284 283 283 283 283 283 283 283 282 282 281 279 279 278 277 276 276 276 277 277 276 276 275 274 275 277 278 279 280 281 283 282 282 282 280 280 280 281

GFSNE_925_thetae_054.txt.gz
Theta_e
294 293 293 294 295 295 294 293 292 292 288 290 288 287 286 286 286 286 286 286 286 285 285 285 286 287 287 288 288 288 288 289 289 291 291 291 291 291
294 293 293 293 293 293 292 291 290 290 286 286 285 284 283 283 284 284 284 284 284 284 284 284 286 286 287 286 287 287 288 288 288 290 291 290 290 290
293 293 293 292 292 291 290 288 286 285 284 284 283 282 282 281 281 282 282 283 283 284 284 285 286 285 285 286 286 287 287 288 289 289 290 290 289 289
293 292 292 291 290 289 287 286 285 284 283 282 282 282 281 281 281 281 282 282 283 284 284 284 284 285 285 284 285 285 285 286 287 288 289 289 288 288
291 291 290 290 289 287 285 285 283 283 282 282 281 281 281 280 281 281 282 282 282 282 281 282 282 282 285 286 286 285 285 286 286 287 288 288 286 287
290 289 288 287 286 285 285 283 283 283 282 281 280 280 280 280 281 281 282 280 280 280 280 281 282 283 284 282 282 284 285 285 286 287 288 287 288 286
289 288 287 286 286 285 284 284 283 282 281 280 279 280 280 280 280 281 280 279 280 280 281 281 281 282 283 283 283 283 284 285 286 287 288 288 287 289
287 286 286 286 285 285 284 283 282 281 280 279 279 279 279 280 280 279 279 279 280 281 281 281 281 282 284 284 284 284 284 285 286 287 288 287 287 287
286 286 286 285 285 284 283 283 282 281 280 277 279 279 278 278 278 279 279 280 280 281 281 281 282 282 284 283 284 285 284 285 285 286 286 286 286 286
286 285 285 285 284 284 283 282 282 281 278 278 279 278 278 279 280 280 281 281 281 281 281 281 282 282 283 283 285 286 285 285 285 285 286 286 286 285
286 285 284 284 284 283 282 281 282 280 277 278 278 278 278 279 279 280 280 280 280 280 281 281 282 283 283 284 285 285 286 285 286 286 286 286 286 285
287 285 284 284 283 282 282 282 280 278 278 278 279 278 278 278 278 279 279 280 280 281 282 282 282 282 283 284 285 285 286 285 287 287 286 286 286 285
287 286 284 283 283 282 282 281 280 279 279 278 278 279 278 277 278 278 278 279 280 280 280 281 282 283 283 284 285 285 285 285 287 287 287 287 286 286
287 286 285 283 282 282 282 281 280 280 279 279 278 279 278 277 278 278 277 278 279 280 281 282 284 284 284 283 284 285 285 285 287 288 288 288 287 286
287 287 285 283 282 282 281 281 281 281 280 280 279 279 278 277 278 277 278 279 279 279 280 281 281 283 283 284 284 284 285 285 286 287 288 288 287 285
287 286 285 283 282 282 282 281 282 281 281 280 279 278 278 277 277 277 278 278 278 278 279 281 281 281 283 284 283 283 284 285 285 287 288 288 288 287
286 286 284 283 282 282 282 281 282 281 281 280 279 278 278 277 277 277 277 277 277 277 278 280 280 280 283 284 284 284 285 285 286 287 286 287 287 287
285 283 282 282 282 282 281 281 281 282 281 280 279 278 278 277 277 277 277 277 277 277 277 277 278 279 280 282 283 282 283 285 286 287 286 287 286 287
285 283 283 283 282 281 281 280 280 282 281 281 279 278 278 277 277 276 277 277 276 277 277 277 276 277 279 276 281 282 282 283 285 286 286 286 284 285
284 282 281 282 282 281 281 281 280 282 281 280 279 278 277 276 277 276 276 276 276 277 276 276 276 276 277 278 281 281 282 282 283 284 284 285 284 284
284 283 282 281 282 281 281 281 281 281 282 280 279 278 277 277 276 276 276 276 276 276 275 275 276 278 280 280 280 282 282 281 281 281 283 284 284 284
284 283 283 283 282 282 282 282 282 281 282 280 280 279 278 277 276 276 276 276 276 275 275 275 276 278 279 280 281 282 282 281 280 280 281 282 282 283
285 284 284 284 283 283 282 282 282 282 282 282 281 279 278 277 276 276 276 276 276 275 275 274 275 276 277 278 279 280 282 282 282 281 280 280 280 282

GFSNE_925_thetae_057.txt.gz
Theta_e
295 294 293 293 293 293 294 293 292 292 288 289 289 287 286 284 283 283 284 284 284 285 284 285 285 286 286 287 287 287 288 288 289 290 290 290 291 293
292 292 292 293 292 292 292 292 291 290 287 287 286 284 283 282 282 281 281 282 282 282 284 285 285 286 286 286 286 287 287 288 288 288 289 289 291 292
292 292 293 292 291 291 290 290 288 286 284 284 283 283 282 282 280 280 281 281 282 282 283 284 285 285 285 285 286 286 286 287 287 287 288 289 290 291
292 292 292 291 291 290 289 287 285 284 283 282 282 282 281 280 280 280 281 281 282 281 282 282 282 282 283 284 285 286 286 287 287 286 287 288 289 289
292 291 291 290 290 289 287 285 284 283 283 282 281 281 280 279 280 280 281 281 280 280 280 280 281 281 282 283 285 285 285 285 285 285 285 286 287 288
291 290 289 288 287 286 285 285 284 283 283 282 281 280 279 279 280 280 281 280 279 279 280 281 281 281 282 282 282 282 283 284 285 284 285 286 286 287
289 289 288 287 286 286 285 285 283 283 282 281 279 279 279 279 279 279 279 279 279 280 280 281 281 281 282 283 283 283 284 284 284 285 285 286 286 288
289 288 286 286 286 285 285 284 283 282 281 280 278 278 278 279 278 278 278 278 280 280 280 280 281 281 282 282 283 283 284 284 285 285 286 286 288 288
289 287 286 286 285 285 284 283 282 281 280 279 277 278 278 278 279 279 279 279 280 280 280 280 281 281 282 282 283 284 285 285 285 285 285 286 286 286
288 287 286 285 285 285 284 283 282 281 281 278 277 278 278 279 279 279 279 279 279 279 280 280 281 281 282 282 283 285 285 285 285 285 285 285 286 286
288 287 285 286 285 284 283 282 281 281 280 278 278 278 278 278 278 279 278 279 279 279 280 280 281 281 281 282 283 284 284 285 286 285 286 286 285 286
288 287 286 286 284 283 282 282 281 281 279 278 278 278 278 278 277 278 278 278 278 279 280 280 280 281 282 283 284 284 284 284 285 285 286 286 286 286
287 287 287 286 285 283 282 281 282 281 279 279 279 279 279 278 277 278 278 277 277 278 278 279 280 282 283 283 283 283 284 285 285 286 287 286 286 286
286 287 287 287 285 283 282 281 282 281 280 280 280 279 279 278 277 277 277 277 278 279 279 279 280 281 282 283 283 283 283 284 285 286 287 287 287 286
286 287 287 287 286 284 282 281 282 281 281 280 280 280 279 278 277 277 277 277 277 277 278 278 279 280 280 282 284 284 283 284 285 285 288 287 287 286
288 287 287 287 286 284 283 282 282 281 281 281 281 280 279 278 277 277 277 277 277 277 278 279 279 279 280 282 283 283 283 284 285 286 286 287 288 286
288 287 285 284 284 283 283 282 282 282 281 281 281 280 279 278 277 276 277 277 276 276 277 277 278 279 280 282 283 282 282 283 285 286 286 286 286 287
286 285 284 284 283 282 282 282 282 282 281 281 281 280 279 278 277 276 276 276 276 276 276 276 276 278 279 280 282 282 282 282 284 286 286 286 286 285
285 285 283 283 283 282 282 281 282 281 280 280 281 280 279 278 277 276 276 276 276 276 276 276 276 276 277 271 280 281 281 281 283 284 284 284 283 283
286 285 284 283 282 282 282 281 281 281 280 281 281 280 279 278 276 276 276 276 276 276 276 276 275 275 276 276 278 280 281 281 281 283 283 284 284 284
286 285 285 283 282 282 282 282 281 281 281 281 281 280 279 278 276 276 276 276 276 276 275 275 274 277 279 279 278 280 281 280 280 281 282 283 283 284
285 285 284 284 283 282 283 283 281 281 281 281 281 280 279 278 277 277 276 276 276 276 275 275 275 277 278 278 279 280 281 281 280 280 281 281 280 281
285 285 285 284 283 282 282 283 282 282 281 282 281 281 279 278 277 277 276 276 276 276 275 274 275 276 277 277 278 279 280 281 281 280 280 280 281 281

GFSNE_925_thetae_060.txt.gz
Theta_e
294 293 292 291 292 292 293 293 293 292 291 289 289 289 288 286 283 282 282 281 281 283 284 284 284 285 286 286 286 287 288 288 289 289 289 290 291 291
293 292 292 292 292 292 292 292 292 291 290 289 287 286 284 283 282 281 280 280 280 281 283 283 284 284 285 286 286 286 287 287 288 288 289 290 290 290
293 292 292 292 292 291 291 290 290 290 287 286 284 283 283 282 281 279 280 280 281 281 282 283 283 283 283 283 284 284 285 286 286 287 287 288 288 289
292 292 292 292 291 290 290 289 288 286 284 283 283 282 282 281 279 279 280 280 281 281 281 281 281 282 282 282 283 283 284 285 286 287 287 287 287 287
291 291 291 291 291 290 289 288 286 285 284 282 282 281 281 280 278 279 279 280 280 279 279 280 281 281 282 283 283 283 284 285 285 284 285 286 287 287
290 290 290 290 289 288 288 287 285 284 283 282 282 281 280 279 278 279 279 279 278 279 280 280 281 281 281 281 281 282 284 284 284 284 284 285 284 285
290 289 289 288 288 286 286 285 285 284 283 282 281 280 279 278 278 278 278 278 278 280 280 280 280 280 281 281 282 282 283 283 284 284 284 284 285 285
289 289 288 288 286 286 286 285 284 284 283 281 280 279 278 277 278 277 278 278 279 279 280 279 279 280 281 281 282 282 283 284 285 285 285 284 284 285
289 288 288 288 286 285 285 284 284 283 282 281 280 280 277 278 278 278 278 279 279 279 279 279 279 280 281 282 282 282 283 285 285 285 285 285 285 285
289 288 288 287 286 285 284 284 283 283 282 281 281 279 278 278 279 279 279 279 278 278 278 279 279 280 280 282 283 282 283 285 285 285 285 285 285 285
289 288 288 287 286 285 285 284 283 282 282 281 280 278 279 279 278 278 277 278 277 277 277 279 280 279 281 283 283 283 284 284 284 284 285 285 285 285
288 288 288 287 287 286 285 283 282 282 282 281 278 278 278 278 278 278 277 277 277 277 279 279 279 280 282 282 283 283 283 283 284 284 285 285 286 287
288 287 287 287 287 286 285 283 283 282 281 280 279 279 279 279 279 278 277 277 277 277 278 278 279 279 281 282 282 282 283 283 283 285 285 286 286 286
288 286 286 287 287 286 286 284 283 282 281 281 280 279 279 279 279 278 277 277 277 277 277 277 277 278 279 280 281 282 283 283 284 284 285 286 287 286
288 288 287 287 287 286 286 285 283 282 281 281 280 280 280 280 279 278 277 276 277 277 277 277 278 278 278 279 280 282 283 283 284 284 285 287 287 287
288 288 286 286 285 286 286 285 283 282 282 281 281 280 281 280 279 278 277 276 276 276 276 277 277 277 277 279 280 282 282 282 283 284 285 285 286 286
287 286 285 285 285 284 283 284 283 282 282 281 281 280 281 280 279 278 276 276 276 276 276 276 276 276 278 279 280 282 282 282 283 284 285 286 285 284
286 285 285 284 283 283 282 282 282 282 282 281 281 280 281 280 279 277 276 276 276 276 276 276 275 276 277 279 280 282 281 281 282 284 283 283 284 283
286 285 285 284 283 283 282 282 282 283 282 281 281 280 281 280 278 277 276 276 276 276 276 276 275 275 277 276 279 280 280 281 281 282 283 283 283 283
286 286 285 285 284 283 282 282 282 282 282 281 280 280 281 280 278 277 276 276 275 275 276 275 275 274 275 277 277 279 280 280 280 281 281 283 284 283
285 285 285 285 284 283 283 282 281 282 282 281 280 280 281 279 278 277 276 276 275 275 275 275 274 275 277 278 278 279 280 280 280 280 280 281 282 283
277 281 284 284 284 284 283 282 281 281 281 281 280 280 281 280 278 278 276 276 275 276 275 275 274 276 277 278 278 279 280 281 280 280 280 280 280 281
271 272 275 279 283 284 283 281 281 281 281 281 281 280 280 279 279 278 276 276 275 275 275 274 274 275 275 276 277 277 278 279 280 280 279 280 280 281

GFSNE_925_thetae_063.txt.gz
Theta_e
294 294 294 294 293 293 293 293 294 295 294 292 292 290 289 288 286 285 284 283 281 281 281 283 284 284 285 286 286 286 287 288 289 289 289 290 291 291
294 294 294 294 293 293 293 293 293 293 293 291 291 289 287 285 284 283 283 281 281 281 281 283 283 284 284 285 285 286 286 286 287 288 288 289 290 290
294 293 293 293 292 292 292 292 292 292 292 290 288 287 285 285 284 283 281 281 282 282 282 282 282 283 283 283 283 284 284 284 285 286 287 287 288 289
294 293 293 292 292 292 291 291 290 290 289 289 288 286 285 284 283 282 281 281 281 281 281 281 281 281 282 282 283 283 283 284 284 285 285 287 287 288
293 293 292 291 291 291 291 290 290 288 287 286 286 285 284 283 283 281 281 281 281 281 280 280 281 281 282 282 283 283 284 284 284 284 285 285 285 286
293 291 291 291 290 290 290 289 289 288 287 286 285 285 284 283 282 281 281 281 281 281 281 281 280 281 281 282 281 282 283 283 284 284 284 284 284 285
292 291 290 290 289 288 288 288 287 286 286 286 285 285 284 284 282 280 280 281 281 281 281 281 281 281 282 282 282 282 282 282 283 284 285 285 285 285
292 291 290 289 288 288 287 286 286 286 286 286 285 285 284 283 281 280 280 281 282 281 281 281 281 281 282 283 282 282 282 283 284 284 286 286 285 285
292 291 290 288 288 287 287 286 285 285 285 285 284 284 283 282 280 280 280 280 281 281 280 281 280 282 282 283 283 282 283 283 283 285 285 285 285 285
291 291 290 289 288 287 287 286 286 286 284 283 283 283 282 281 280 280 280 280 280 280 280 280 281 282 282 283 283 283 283 283 284 284 284 284 284 285
291 290 290 289 288 288 286 285 285 285 284 283 282 281 281 279 279 280 280 280 280 281 280 280 281 281 282 283 284 283 283 283 283 283 284 284 284 285
290 290 289 289 288 288 287 286 286 286 284 282 282 281 280 280 279 279 280 280 280 280 280 279 280 280 282 283 284 284 284 284 284 284 284 284 285 285
289 289 289 289 289 288 287 286 286 285 284 283 282 281 280 280 280 280 280 279 279 280 280 279 279 279 280 281 282 282 284 284 285 286 286 285 285 286
288 288 289 288 288 288 287 286 286 285 283 283 282 282 281 281 281 280 280 279 279 278 278 278 279 279 279 280 281 282 283 284 285 285 285 285 286 287
285 286 286 287 287 287 287 286 286 284 283 283 283 282 282 281 281 280 279 279 278 278 278 278 278 279 279 280 281 282 282 284 285 285 285 285 286 285
285 285 286 286 286 286 285 286 285 284 284 284 283 283 282 281 280 280 280 279 279 279 278 278 278 278 279 279 280 281 282 284 284 284 284 286 285 285
283 284 286 286 287 286 285 285 285 285 284 283 283 283 282 281 281 280 279 279 279 279 279 278 278 277 278 278 280 281 283 283 283 283 285 285 285 285
284 285 287 287 287 286 285 285 284 284 284 283 283 282 282 281 281 280 279 279 279 278 278 278 278 278 280 281 280 282 283 283 283 283 285 285 285 285
285 287 287 286 286 285 285 284 284 284 283 282 282 282 282 281 281 280 280 279 279 278 278 278 278 278 281 282 281 280 282 281 282 283 284 285 285 285
276 276 283 286 286 286 285 284 284 284 282 282 282 282 281 281 281 280 280 279 278 278 278 278 278 277 279 280 280 280 280 281 282 282 283 283 284 284
273 274 275 276 280 285 285 284 284 283 282 282 282 281 281 280 280 280 280 278 277 277 278 278 278 275 276 278 280 282 282 280 280 280 281 283 284 284
271 271 272 273 274 276 282 284 283 282 282 281 281 281 280 280 281 280 279 279 277 277 278 277 276 276 278 280 281 281 282 281 280 280 279 280 282 284
269 269 269 270 271 273 274 277 282 282 281 281 281 281 280 280 280 280 279 278 278 277 277 277 276 276 277 278 279 280 280 281 281 282 281 279 280 280

GFSNE_925_thetae_066.txt.gz
Theta_e
299 298 297 296 296 296 295 295 295 298 297 295 294 293 293 292 291 289 288 287 285 284 282 283 283 284 285 285 286 286 287 287 288 289 289 290 290 291
298 297 297 296 296 295 295 294 294 295 296 294 293 293 292 291 289 288 287 286 284 283 283 283 283 284 284 284 284 285 285 286 286 287 287 288 289 290
297 297 296 296 295 295 294 294 294 294 294 293 293 292 291 289 289 288 287 286 285 284 283 283 283 283 283 283 283 283 284 284 285 285 286 286 287 288
297 297 296 295 295 294 294 294 293 293 293 293 292 291 291 289 288 287 286 285 284 284 283 283 282 282 282 282 283 283 283 284 284 284 285 285 286 287
296 296 295 295 294 294 294 293 293 292 292 292 291 290 290 289 288 287 286 285 284 284 283 282 282 282 282 282 282 283 283 283 284 284 285 285 285 285
296 295 295 294 294 293 293 292 292 292 291 291 291 290 289 289 288 286 286 285 284 284 284 284 283 283 282 283 283 283 283 283 284 284 284 284 284 285
295 295 294 294 293 292 291 290 291 291 291 290 290 289 289 288 288 287 285 284 284 284 284 284 284 284 284 284 284 284 284 284 284 284 284 284 285 285
295 294 294 294 292 291 290 289 288 289 290 290 289 289 288 288 287 286 285 284 285 284 284 284 284 284 284 284 284 283 283 283 284 284 284 284 285 286
294 294 294 293 292 292 291 290 288 288 287 287 288 288 288 287 287 286 284 284 284 284 283 283 284 284 284 285 284 283 283 283 283 284 284 284 285 284
293 293 293 293 293 292 292 291 290 290 289 287 287 287 287 286 285 284 283 283 283 283 283 284 284 284 284 284 284 284 284 284 284 284 284 284 284 284
292 292 292 292 292 291 291 290 290 290 288 287 286 286 285 284 283 283 283 283 284 284 283 283 283 283 283 283 285 285 284 285 285 285 285 285 284 284
291 291 291 291 291 290 290 290 289 289 289 288 286 284 283 283 282 281 282 283 283 284 283 282 283 282 283 283 285 284 285 285 285 285 285 286 285 286
286 287 287 288 289 289 289 289 289 289 288 288 287 286 285 284 283 282 282 282 283 283 283 282 282 282 282 283 283 283 283 285 285 286 286 286 286 286
284 285 286 287 286 286 286 288 287 287 287 288 286 286 285 285 284 283 283 283 282 282 282 281 281 281 281 282 282 282 283 284 285 286 286 286 286 287
282 283 283 283 284 285 286 286 287 286 287 286 286 286 285 285 284 283 283 282 282 281 281 280 280 281 281 281 282 282 282 284 285 285 286 286 287 287
281 282 284 285 284 285 286 286 286 286 286 287 286 286 286 285 284 283 283 283 282 282 282 281 280 280 280 281 281 281 282 284 285 285 285 286 287 287
279 283 285 286 287 288 287 288 287 286 286 286 287 287 286 285 284 283 283 282 282 282 282 282 281 281 280 280 281 282 283 284 285 285 285 286 286 287
280 282 283 284 288 288 288 288 287 286 287 287 286 286 286 285 284 284 283 282 282 282 282 281 281 281 281 283 282 282 283 284 284 284 285 285 286 286
279 279 280 280 282 282 288 288 287 286 286 286 286 286 285 285 284 284 283 282 282 282 282 281 281 281 283 284 284 281 282 282 283 284 284 285 285 286
276 277 277 277 278 279 281 285 287 286 286 285 285 285 285 284 284 283 283 282 282 282 281 281 281 281 281 282 281 282 281 281 283 283 283 283 285 285
274 275 275 275 275 276 278 279 281 286 286 285 285 284 284 284 284 283 282 282 281 281 281 281 281 279 277 279 281 283 283 282 281 281 281 283 285 286
273 273 273 273 273 273 275 276 278 280 285 285 284 284 284 283 283 283 283 282 280 281 281 281 280 279 279 281 282 282 283 282 282 281 280 280 282 284
271 271 271 271 272 272 272 273 275 277 279 283 284 284 284 283 283 283 282 281 281 281 280 280 280 279 279 280 280 281 282 282 282 283 282 280 280 280

GFSNE_925_thetae_069.txt.gz
Theta_e
298 300 300 300 299 299 298 298 297 300 298 297 297 296 296 295 294 293 293 291 289 288 287 285 284 285 285 286 286 286 286 287 287 288 289 289 290 290
298 299 300 300 299 298 298 297 296 297 299 296 296 295 295 294 294 292 291 290 289 288 287 285 284 284 284 285 285 285 285 285 285 286 287 287 288 289
299 300 299 299 298 298 297 296 296 296 297 296 295 295 294 294 294 292 291 290 289 288 286 285 284 284 283 284 283 283 283 284 284 285 285 286 286 287
299 299 299 299 298 297 297 296 296 295 295 296 295 294 294 293 292 292 291 289 288 288 286 285 284 283 283 283 283 283 283 284 284 284 285 285 286 286
300 299 298 298 297 297 296 296 295 295 295 295 295 294 293 292 292 291 290 290 288 287 286 285 285 284 284 283 283 283 284 284 284 284 284 284 285 285
299 299 298 297 297 296 296 295 295 294 294 294 294 293 293 292 291 291 290 289 288 287 286 286 286 285 285 284 284 284 284 284 284 284 284 284 284 284
299 298 297 297 296 295 295 294 293 293 293 293 293 293 292 292 291 290 290 289 288 287 286 286 286 286 286 285 285 285 285 284 284 284 284 284 284 284
297 297 296 296 295 295 294 294 293 292 292 291 292 292 291 291 290 290 289 289 288 286 286 286 286 285 285 285 285 285 284 284 283 284 285 285 284 284
295 295 295 295 295 295 295 294 293 292 291 290 290 290 290 290 290 289 289 288 287 286 285 285 285 286 285 285 285 285 284 284 283 284 284 284 284 285
293 293 294 294 294 294 293 293 293 293 292 290 289 289 289 288 288 289 288 286 285 284 285 286 285 285 285 285 285 285 284 285 284 285 285 285 285 285
292 292 292 292 292 292 290 292 292 292 292 291 290 290 289 288 287 286 286 285 286 285 285 285 285 285 284 284 285 285 285 285 285 285 285 285 285 286
288 288 287 287 287 287 287 289 290 290 290 291 290 289 287 286 286 286 285 285 285 285 285 285 285 284 284 284 285 284 284 284 285 285 285 286 286 286
284 284 284 284 284 285 286 286 287 287 286 288 290 290 289 287 286 285 284 284 284 284 284 284 284 283 283 283 283 284 284 284 284 285 286 286 286 286
282 283 283 282 281 281 283 284 284 285 286 287 288 289 289 287 286 286 285 284 284 284 284 283 283 283 282 283 283 283 283 283 283 284 286 286 286 287
280 280 281 280 282 283 286 287 287 286 286 287 287 288 288 287 287 286 285 285 285 284 284 283 282 282 282 283 283 283 283 283 284 285 286 286 286 287
279 279 280 283 285 287 287 287 288 287 287 287 287 288 287 287 287 286 286 285 284 284 283 283 283 282 282 282 282 283 283 283 284 285 286 285 286 287
277 279 282 282 283 283 285 286 288 288 288 287 287 288 288 287 287 286 285 285 285 284 284 284 283 282 282 282 283 282 283 284 285 285 285 286 286 287
278 280 280 280 280 281 282 283 284 288 288 287 287 287 288 288 287 286 285 285 284 284 284 283 283 283 283 283 283 283 284 284 284 284 284 285 286 286
278 279 279 278 278 278 279 280 281 281 287 287 287 288 287 287 287 286 285 285 285 284 283 283 283 283 284 285 284 283 283 283 283 284 284 284 285 284
278 277 277 277 277 276 277 277 279 279 281 286 286 286 286 286 287 286 286 285 285 283 283 283 283 283 283 283 283 282 282 282 283 283 283 283 284 286
276 276 275 275 275 275 275 275 276 277 278 280 286 286 285 286 286 286 286 285 284 284 283 283 283 281 281 280 281 282 284 283 282 282 282 282 284 285
274 274 274 273 273 273 274 274 274 274 276 278 280 285 285 285 285 286 285 284 283 283 282 282 282 281 281 280 282 283 284 283 282 282 281 280 282 283
272 272 272 272 272 272 272 272 273 272 273 275 277 278 278 285 285 285 284 284 283 282 282 282 282 281 281 281 281 281 282 283 283 284 283 282 281 280

GFSNE_925_thetae_072.txt.gz
Theta_e
304 302 300 301 301 301 299 299 299 294 296 298 297 297 296 296 296 295 295 294 293 291 290 289 288 287 286 286 286 286 286 287 287 287 288 288 289 289
300 299 301 301 301 300 299 299 298 298 296 297 297 296 296 295 295 295 295 293 292 291 290 289 288 286 285 285 285 285 285 286 286 286 286 286 287 287
300 301 301 300 300 299 299 299 298 297 296 296 296 296 296 295 295 294 294 293 292 291 290 288 287 286 286 285 283 284 284 284 284 285 285 286 286 287
301 300 300 301 300 299 298 298 297 297 297 295 295 296 295 295 294 294 293 293 292 291 289 289 288 287 286 284 284 284 284 284 284 284 284 285 285 285
300 300 300 300 299 299 299 298 297 297 296 296 295 295 294 294 294 293 293 292 291 291 290 288 287 286 285 285 285 285 285 284 284 284 284 284 284 284
300 300 300 299 299 298 297 297 297 296 296 295 294 294 293 293 293 293 292 291 291 290 289 288 287 286 286 286 286 286 285 285 284 284 284 284 284 284
299 300 299 299 298 298 297 297 296 296 295 293 293 292 292 292 292 291 291 290 290 289 288 287 286 286 286 286 285 286 285 285 285 284 284 284 284 284
297 297 296 296 296 295 296 296 295 295 294 294 293 292 291 291 290 291 290 290 288 289 288 287 286 286 285 284 285 285 285 285 285 284 283 283 284 284
293 293 293 294 294 294 294 294 293 293 294 293 293 292 291 291 290 290 290 290 289 288 287 285 285 285 284 285 286 285 285 285 285 284 283 284 285 285
293 293 292 291 290 289 288 288 288 288 290 292 292 292 291 290 290 290 289 289 288 287 285 285 284 285 286 285 285 284 284 285 285 285 284 285 285 285
288 288 288 287 287 286 285 285 285 286 287 288 289 290 290 291 290 289 288 288 286 286 285 285 285 285 285 285 284 284 285 284 285 284 285 285 285 285
285 283 283 284 284 284 283 283 282 282 285 286 286 286 286 287 288 289 287 286 286 285 285 284 285 285 284 284 284 283 283 284 284 284 284 284 285 286
281 282 282 282 282 281 280 282 282 283 283 284 284 285 285 286 288 287 287 286 286 285 285 284 284 284 283 283 283 282 282 283 283 283 283 283 285 286
280 280 280 280 280 282 283 285 286 286 285 285 285 285 285 286 287 287 286 285 285 284 283 284 284 283 283 283 282 282 282 282 283 283 283 284 286 286
279 279 278 279 282 282 283 283 285 286 286 286 286 286 286 286 287 287 286 286 285 284 284 284 284 283 283 282 282 282 282 282 282 283 283 284 286 285
277 277 278 280 282 280 280 281 282 283 283 287 287 287 287 287 287 287 286 286 285 285 285 284 284 283 283 283 282 282 282 282 282 283 284 285 285 285
276 277 279 280 279 279 278 279 279 280 281 281 287 287 287 288 287 287 287 286 286 285 284 284 283 283 283 283 282 282 282 283 283 284 284 284 284 285
277 278 279 279 278 278 277 277 277 277 279 279 280 287 287 288 287 287 287 286 285 285 285 284 284 284 283 283 283 282 283 283 283 283 282 284 284 284
278 278 278 277 277 277 276 276 276 276 276 278 279 280 287 287 288 287 287 286 285 285 284 284 284 283 283 277 283 284 284 283 283 282 284 283 283 283
277 277 276 276 275 275 275 274 274 275 275 274 276 279 284 286 286 286 286 286 285 285 284 283 283 283 283 280 282 282 282 281 281 282 282 282 282 283
276 275 274 274 274 273 273 273 273 273 274 273 274 277 278 280 286 286 286 286 285 285 284 283 283 282 282 281 280 280 281 283 282 282 282 281 281 283
274 273 273 272 272 272 272 272 272 272 272 272 272 274 275 275 277 283 285 286 285 284 284 283 282 282 281 280 280 281 282 283 282 282 282 282 280 278
272 271 271 271 270 270 270 270 270 270 270 271 271 271 272 272 273 276 283 285 284 283 283 282 282 282 281 281 281 281 281 282 282 282 283 283 282 281

GFSNE_925_thetae_075.txt.gz
Theta_e
306 305 305 306 303 303 302 301 299 293 294 298 297 297 296 296 296 296 296 296 295 294 293 292 291 290 289 289 287 287 287 286 286 287 287 288 288 288
305 304 305 305 303 303 301 301 299 298 295 297 297 296 296 296 295 295 295 295 294 294 293 292 290 290 288 287 287 286 286 286 286 286 286 286 287 287
304 305 304 303 301 301 301 300 299 298 295 296 296 296 296 295 295 295 295 294 294 294 293 291 290 289 288 288 286 285 284 285 285 286 286 286 286 286
304 302 303 301 300 300 300 299 299 298 298 296 296 296 296 295 295 295 294 294 293 293 293 291 289 289 289 287 286 285 285 285 285 285 285 285 285 285
302 301 300 300 300 300 300 299 299 298 297 297 296 296 295 295 294 294 293 293 293 293 292 291 291 289 287 286 286 286 285 285 285 285 284 284 285 285
300 300 300 300 300 299 299 298 298 297 297 296 296 295 294 294 293 292 292 292 291 291 291 290 290 289 287 286 286 286 285 285 286 286 285 285 284 285
300 300 298 297 296 296 295 295 295 296 295 295 293 293 292 292 292 292 291 291 291 290 290 290 289 288 287 286 286 285 285 285 285 285 285 284 284 283
297 296 295 294 293 294 293 292 290 288 289 290 291 293 293 292 292 291 290 289 289 289 289 289 289 287 286 285 285 284 285 285 285 285 284 284 283 284
292 292 292 291 291 290 290 290 289 288 286 286 288 289 290 291 291 290 290 289 289 290 288 288 288 286 285 285 284 285 286 285 284 285 285 285 284 284
291 290 289 288 287 285 284 283 283 282 281 281 284 285 287 289 289 290 290 289 289 289 289 287 287 285 285 284 285 285 285 284 284 284 284 285 284 284
287 286 283 282 282 282 282 280 280 281 284 284 284 283 283 285 286 285 287 288 288 288 288 286 285 285 284 285 285 284 284 283 283 284 284 284 284 284
284 281 280 280 280 279 280 281 282 283 283 284 284 285 285 285 284 284 285 287 288 286 287 285 285 285 284 284 284 283 283 283 282 283 283 283 283 282
280 279 279 279 279 280 282 282 283 283 283 285 284 284 284 284 285 284 285 285 287 286 287 285 285 284 284 283 283 283 283 281 281 282 282 283 283 284
279 279 278 277 280 281 281 280 280 280 282 283 283 285 285 285 285 285 285 285 286 287 286 285 284 284 283 283 283 283 282 281 281 281 282 283 284 284
277 277 277 279 281 280 279 278 278 279 279 280 281 281 282 285 286 286 286 286 286 286 285 284 283 284 284 283 283 282 282 282 281 282 282 283 284 285
277 277 278 279 279 278 277 277 277 277 277 278 278 278 280 284 286 286 287 286 285 285 285 285 284 284 284 283 283 282 282 281 281 282 283 284 283 283
277 277 278 279 278 277 276 276 275 275 275 275 275 277 278 279 284 286 286 286 286 284 285 285 284 284 284 283 282 282 282 282 282 282 283 283 282 283
277 278 278 277 276 275 275 275 274 274 274 274 274 274 276 278 278 286 286 286 285 285 285 285 285 284 284 283 283 283 282 282 282 283 282 283 283 282
277 276 276 275 274 274 274 273 273 273 272 273 273 273 274 277 277 282 287 286 285 285 285 285 284 284 283 282 283 283 283 283 283 282 282 282 282 282
275 275 274 273 273 273 272 272 272 271 271 271 271 271 272 274 274 275 283 286 285 285 284 284 284 283 283 281 282 283 283 282 281 281 282 282 282 282
274 273 272 272 272 271 270 270 271 270 270 270 270 270 271 272 272 273 274 279 285 285 285 284 284 284 283 282 280 281 281 281 282 283 282 282 281 281
272 271 271 270 270 269 269 269 269 268 268 269 269 270 269 270 271 271 272 274 276 285 285 284 283 282 281 281 280 280 280 282 282 282 282 282 281 276
270 270 269 269 268 268 268 268 267 267 267 268 268 268 267 268 269 270 270 272 274 284 284 283 283 282 281 281 281 281 281 281 282 282 282 283 283 283

GFSNE_925_thetae_078.txt.gz
Theta_e
314 311 310 308 306 306 307 304 301 299 297 298 298 298 298 297 296 296 296 295 295 296 296 295 294 293 292 292 290 290 289 288 287 287 287 288 288 288
311 310 307 306 306 306 305 304 302 300 296 297 298 298 297 296 296 296 296 295 295 294 294 294 294 293 292 290 290 290 289 288 287 287 287 287 287 287
308 306 306 305 305 303 303 302 300 299 295 297 297 297 297 297 296 295 295 295 295 295 294 294 294 293 291 290 289 288 288 287 287 287 287 287 287 287
305 304 304 302 302 302 300 300 300 299 298 296 297 297 297 297 296 296 295 295 294 294 293 293 292 293 291 290 289 290 287 286 285 285 286 287 286 286
305 303 302 301 300 299 300 300 299 299 298 297 296 296 296 296 296 295 295 295 294 293 293 292 292 292 291 290 290 287 287 286 285 285 285 286 285 286
302 301 300 300 300 300 298 297 297 296 296 295 293 293 293 293 293 293 293 293 292 292 292 291 291 291 290 289 288 289 286 286 286 285 285 286 285 284
300 300 298 295 294 294 294 293 293 292 291 289 289 289 290 291 291 292 291 291 291 291 291 292 290 290 290 289 288 287 286 286 285 285 285 285 285 284
297 295 293 293 292 291 291 290 289 287 286 285 285 286 286 287 288 289 290 290 290 290 290 290 290 289 289 289 286 286 285 284 285 285 285 284 284 284
293 292 291 290 290 289 288 286 284 282 280 280 281 282 283 283 284 286 287 288 288 289 289 289 289 289 288 288 286 285 285 285 285 284 284 284 284 285
291 290 289 287 285 284 283 281 280 280 282 283 283 284 284 284 283 285 286 286 286 286 287 288 288 288 289 288 286 285 284 285 284 284 284 284 284 284
287 285 283 282 281 280 279 280 281 282 282 282 282 282 284 284 284 284 284 283 283 284 285 287 287 286 287 286 285 284 285 284 284 283 283 283 283 283
284 282 280 279 279 278 281 281 281 281 281 280 281 283 283 283 283 283 284 283 284 284 284 286 286 285 284 285 285 284 284 283 283 282 281 282 282 282
282 279 279 278 278 280 281 280 280 279 278 279 279 280 281 282 283 284 284 284 284 285 284 285 286 285 284 283 284 283 283 283 283 281 281 281 282 282
279 278 278 277 279 280 279 279 278 277 276 276 277 278 278 278 279 281 284 284 285 285 285 286 285 284 283 283 283 283 283 283 282 281 281 282 282 283
277 277 277 278 280 279 278 277 276 275 275 275 275 275 275 276 277 279 281 285 285 285 285 285 285 284 283 283 283 283 283 283 282 281 281 282 283 284
277 277 277 278 278 277 276 276 275 274 274 274 274 274 274 274 276 278 278 282 286 285 285 285 285 284 283 283 283 283 283 282 282 282 282 282 283 283
277 277 278 277 276 275 275 274 273 273 273 273 273 273 272 273 274 276 277 278 285 286 285 286 285 284 284 284 283 283 283 282 283 282 282 282 282 282
277 276 276 275 274 273 273 273 272 272 271 271 271 271 271 271 273 274 275 275 282 285 285 285 285 284 283 283 283 283 283 283 283 282 283 282 282 282
276 275 274 273 272 272 272 271 271 271 270 270 270 270 270 270 271 272 273 274 275 285 285 285 284 284 284 277 283 283 283 283 283 283 283 282 281 282
274 274 273 272 271 271 270 269 269 269 269 268 268 269 268 269 269 270 271 272 273 275 284 284 284 284 284 279 281 283 283 283 283 282 281 281 282 281
273 272 271 271 270 269 269 268 268 268 267 267 267 267 268 268 267 268 270 271 271 274 279 284 284 284 284 283 280 282 282 282 281 281 282 282 281 281
271 270 270 269 269 268 267 267 267 267 266 267 267 267 267 266 266 267 268 270 270 272 273 278 284 283 283 281 280 281 281 281 282 282 282 282 282 277
270 269 268 268 267 267 267 266 266 266 266 266 266 266 266 265 266 266 268 268 269 271 272 279 282 282 281 281 281 281 280 280 280 281 282 281 282 283

GFSNE_925_thetae_081.txt.gz
Theta_e
317 316 313 312 311 310 308 306 305 302 299 299 299 300 298 298 298 297 296 296 295 295 295 295 296 296 295 294 295 295 294 293 292 291 289 289 289 289
316 314 312 312 309 307 306 306 304 303 300 300 300 299 298 298 297 297 296 296 295 294 294 294 294 294 294 294 293 293 293 292 291 290 289 288 288 288
313 312 311 308 306 305 305 304 303 302 299 299 298 298 298 298 297 297 297 296 296 295 295 294 294 294 293 293 293 293 292 291 290 290 289 288 288 288
312 309 307 305 305 304 303 302 301 300 298 295 298 297 297 297 296 296 296 295 295 295 295 295 294 294 293 292 292 293 291 290 290 289 287 288 287 287
309 307 305 304 303 302 301 300 299 299 298 295 295 295 295 295 294 294 294 293 293 293 293 293 293 293 292 292 292 292 291 290 289 287 287 286 285 287
306 305 303 301 300 299 299 299 298 297 295 293 291 290 291 291 290 290 290 290 290 290 290 291 292 292 292 291 291 291 290 290 288 288 286 286 285 285
302 301 300 300 299 297 296 294 293 292 290 289 288 287 286 286 285 285 286 286 287 286 287 288 289 290 290 291 291 290 290 289 289 287 286 286 285 285
299 297 294 294 293 292 292 292 290 288 286 284 283 282 282 282 282 283 284 284 284 285 287 288 287 288 289 289 289 289 289 289 288 286 285 284 285 284
294 292 291 290 290 289 288 288 286 282 280 281 281 282 282 283 283 283 283 284 284 285 285 286 286 285 286 287 289 289 288 286 285 285 284 285 284 284
292 291 289 287 286 284 283 281 280 281 281 282 282 282 282 282 283 283 283 283 283 283 283 284 284 284 285 285 285 287 287 285 285 285 285 284 284 284
289 287 285 283 281 280 280 280 281 281 280 280 280 280 282 283 283 283 283 283 283 283 283 283 284 284 285 285 286 287 286 286 284 285 284 284 283 283
285 283 280 280 279 279 280 281 280 279 278 277 277 277 278 279 281 282 282 283 283 283 284 284 284 284 284 285 285 286 285 284 284 284 282 282 282 282
282 280 279 278 278 279 281 280 279 278 276 276 275 276 277 277 277 277 279 280 282 283 283 284 284 284 284 285 283 284 284 284 283 283 282 281 281 281
281 279 278 277 278 280 279 278 278 276 275 274 274 275 275 274 274 275 276 278 279 280 283 284 284 284 284 282 282 283 283 283 283 283 281 281 281 282
278 277 277 277 279 279 278 277 276 275 274 273 274 273 273 273 273 274 275 276 277 279 282 284 284 284 284 284 283 283 283 283 283 282 281 282 282 283
277 277 277 278 278 278 276 276 275 273 272 273 272 272 272 272 272 272 273 275 275 277 280 285 284 284 284 283 283 283 283 283 282 281 281 282 282 282
277 277 277 277 276 275 275 274 273 272 272 271 271 271 270 270 270 271 272 273 274 275 276 282 285 284 284 284 283 283 283 283 283 282 282 282 282 282
277 276 276 275 274 273 273 272 271 271 270 270 270 269 269 269 269 269 270 271 272 273 275 279 283 282 282 283 283 283 284 283 283 283 282 282 282 282
276 275 274 273 272 272 271 271 270 269 269 269 268 267 268 268 268 268 268 269 270 272 273 275 283 284 283 282 284 284 284 283 283 283 282 282 282 281
275 274 272 271 271 270 269 269 268 268 268 267 267 267 267 267 267 266 267 267 269 270 272 274 281 284 284 283 281 283 283 283 283 282 283 282 281 281
273 272 271 270 269 269 268 267 267 267 267 266 266 266 266 266 266 265 265 266 267 270 271 273 274 277 283 284 281 282 283 282 282 283 282 281 282 281
270 270 270 269 268 267 267 267 266 266 266 266 266 266 265 265 265 265 265 265 267 268 269 271 272 276 282 283 281 282 282 282 281 281 281 281 282 277
269 268 267 267 267 266 266 265 265 265 265 265 265 265 265 265 265 265 264 266 265 267 268 270 272 276 282 282 282 281 281 280 281 281 281 282 281 282

GFSNE_925_thetae_084.txt.gz
Theta_e
321 319 315 315 313 312 311 310 308 305 303 303 304 304 302 300 299 298 297 297 296 296 295 295 294 294 295 295 295 295 297 297 296 296 295 293 292 291
316 317 315 314 313 312 311 308 307 305 304 303 302 302 301 298 298 298 297 297 297 296 295 295 295 294 294 294 294 294 294 294 295 295 294 293 292 291
319 315 313 314 312 310 308 306 305 305 301 301 301 301 300 298 298 297 296 296 296 295 295 295 295 294 294 294 294 293 293 293 293 293 294 293 292 291
317 314 312 311 309 308 306 305 304 303 301 299 299 298 298 298 297 296 296 296 295 294 294 294 294 294 293 293 293 293 293 292 292 293 293 292 291 290
312 312 310 309 306 305 304 303 301 300 299 297 296 296 296 295 295 294 292 292 291 291 290 289 289 290 290 291 292 292 292 292 292 292 293 291 290 289
311 309 308 307 305 304 302 300 299 298 296 294 292 292 291 291 290 288 287 285 283 283 283 283 283 284 285 287 289 290 291 291 291 291 292 290 289 288
306 304 303 302 301 300 299 299 296 293 291 290 288 287 287 285 284 282 283 283 284 284 284 284 285 285 285 284 285 288 289 289 290 291 290 289 289 287
302 301 300 300 299 297 295 293 291 290 289 286 285 283 281 281 282 283 282 282 283 284 285 284 284 284 284 284 284 283 284 287 289 290 290 289 288 286
299 296 293 291 292 290 289 288 285 282 281 281 281 281 282 282 282 282 282 281 282 283 283 283 284 284 285 284 284 284 284 285 287 288 288 288 287 285
293 291 290 289 287 287 285 283 281 281 281 281 281 281 281 281 282 282 282 282 282 283 283 283 283 283 284 284 284 284 284 285 286 287 286 285 285 285
289 288 286 285 283 281 280 280 280 281 280 279 278 278 278 279 281 282 282 282 283 283 283 283 283 283 283 284 284 284 285 285 286 287 285 285 285 285
284 283 281 281 279 279 279 280 280 280 279 277 277 277 276 277 277 278 278 279 280 281 283 282 283 283 284 284 284 283 285 285 285 285 285 285 285 284
283 281 280 278 278 279 280 280 279 278 277 276 275 275 275 276 275 275 275 276 277 278 280 280 281 283 283 284 284 284 285 285 285 285 284 283 282 282
282 280 279 278 278 279 280 279 278 277 276 275 274 274 274 274 274 273 273 274 275 276 277 277 278 281 284 284 283 283 284 283 284 283 282 282 281 281
279 278 277 277 278 279 278 277 277 275 274 273 273 273 272 273 272 272 272 272 274 274 275 276 277 278 282 284 284 283 283 283 282 283 283 282 281 281
278 277 277 278 278 278 277 276 275 274 273 273 272 272 272 271 271 271 271 271 271 273 274 275 276 277 283 284 284 283 283 283 283 283 282 281 282 282
277 277 277 277 276 276 275 274 273 272 272 272 271 271 270 270 269 269 270 270 270 271 272 273 274 276 280 284 283 283 283 282 283 283 282 281 282 282
277 276 276 275 274 274 273 273 272 271 270 270 270 269 268 268 268 268 269 268 268 269 270 271 272 274 281 284 284 283 282 283 283 283 282 281 282 282
276 276 275 274 273 272 272 271 270 269 268 268 268 267 267 267 266 266 267 267 266 267 268 270 271 274 277 283 283 283 283 283 283 283 282 281 282 282
274 274 273 272 271 270 269 269 268 267 267 267 267 266 266 266 265 266 266 265 265 266 267 269 271 273 274 277 282 284 284 284 283 282 282 282 282 281
272 271 270 270 269 268 268 267 267 267 266 266 265 265 266 265 265 264 264 264 264 266 268 268 269 270 272 274 280 282 283 283 283 282 282 282 281 281
269 268 268 268 267 266 266 266 265 265 265 264 264 264 265 264 264 264 264 264 265 265 266 267 268 270 272 274 282 281 282 282 282 282 282 282 281 281
266 266 265 265 265 265 264 264 263 263 263 263 263 263 263 263 264 263 264 264 264 265 265 266 268 269 272 274 281 280 281 281 281 281 281 281 281 282

GFSNE_925_thetae_087.txt.gz
Theta_e
321 321 320 317 315 312 312 312 312 308 308 306 306 305 304 304 302 299 299 298 297 296 297 296 295 294 294 294 294 294 295 298 299 298 297 296 297 297
320 320 318 316 317 313 311 310 311 310 310 306 305 304 303 300 299 298 298 297 297 296 296 296 295 295 295 295 294 294 293 294 294 295 296 296 296 296
320 319 317 317 317 313 311 310 309 307 308 303 304 303 301 302 300 298 298 297 296 296 296 296 295 295 295 295 295 294 294 294 294 294 294 295 295 295
318 316 314 314 315 311 309 309 306 306 305 302 302 302 301 300 298 298 297 296 295 295 295 294 293 293 293 293 293 293 293 293 292 292 292 292 294 294
316 316 316 313 312 309 307 306 306 304 302 300 299 298 297 297 296 296 295 293 291 291 292 290 287 285 284 284 284 284 285 286 287 290 291 291 291 292
316 315 312 309 308 307 306 305 303 301 299 298 296 295 294 293 292 291 291 289 287 286 285 284 284 284 284 284 284 284 284 284 287 290 291 291 291 291
311 307 306 306 306 306 303 302 300 298 296 293 292 290 290 291 290 288 286 285 285 285 286 286 286 287 287 286 286 286 285 285 284 285 287 288 290 291
305 302 302 302 301 300 299 297 296 292 289 289 290 290 290 286 285 284 284 285 285 285 285 285 285 285 286 287 287 286 285 285 284 283 284 287 290 290
300 298 297 295 295 293 292 290 290 290 289 286 286 284 284 284 283 283 283 284 284 285 284 284 285 285 285 286 285 285 285 285 284 284 285 286 289 290
295 293 292 289 288 290 291 288 284 282 282 282 283 283 282 282 282 283 283 284 284 284 284 284 284 285 285 285 285 285 285 284 284 284 285 286 288 288
289 289 290 289 289 286 282 282 282 282 281 280 279 278 278 278 279 280 282 282 283 283 283 283 284 284 284 284 285 285 284 284 284 285 285 287 286 285
284 284 284 282 280 280 280 282 282 281 280 279 278 278 277 278 277 278 278 279 280 281 284 283 284 284 283 284 285 285 285 285 284 285 286 286 286 286
282 281 280 279 279 279 280 281 281 279 278 277 277 277 277 277 276 276 276 276 277 279 279 279 280 280 281 282 283 284 285 285 286 285 285 285 286 285
281 280 279 279 278 279 280 279 279 278 277 277 277 276 276 275 275 275 274 274 275 275 276 276 277 278 279 280 282 283 285 285 285 285 286 284 283 282
279 278 278 278 278 279 279 278 277 277 276 276 276 276 275 274 274 273 273 273 273 273 274 274 276 277 278 279 280 282 285 285 285 285 284 284 284 284
279 279 278 278 278 278 278 277 277 276 275 275 275 274 273 273 272 272 272 272 272 273 274 274 274 276 277 278 279 282 285 285 285 284 284 284 284 283
279 279 279 278 278 277 277 276 275 274 274 274 273 273 273 272 271 271 271 271 272 273 273 273 273 274 275 276 278 280 285 285 285 284 284 283 283 283
278 278 277 277 276 276 275 275 274 273 272 272 271 271 271 270 270 270 270 270 271 271 271 271 272 273 275 278 280 281 285 286 284 284 284 284 284 284
276 276 276 275 274 274 273 272 272 271 270 270 269 270 269 269 268 269 269 270 270 270 270 270 271 273 276 279 278 281 285 285 285 284 284 284 284 284
274 273 273 272 272 272 271 270 269 269 268 268 268 268 267 267 267 268 268 268 269 269 269 270 271 272 273 275 275 274 277 284 284 284 284 284 284 283
270 270 270 269 269 268 268 267 267 266 266 266 266 266 266 266 266 267 267 267 267 268 269 270 270 269 270 272 274 276 278 282 284 285 284 284 283 283
267 267 267 266 266 266 265 265 265 265 265 265 265 265 265 265 266 266 266 267 267 268 268 269 269 270 271 272 274 276 280 283 283 283 283 283 283 284
264 264 264 264 264 264 264 264 263 263 263 263 263 264 264 264 265 265 266 266 267 267 267 268 268 269 271 271 272 274 281 283 283 282 283 282 281 281

GFSNE_925_thetae_090.txt.gz
Theta_e
324 324 323 323 322 319 317 316 315 315 314 311 311 309 309 308 306 306 305 303 301 300 297 296 296 296 296 295 294 294 294 294 297 299 300 300 300 299
322 321 321 320 319 317 318 314 313 313 314 311 309 310 307 306 304 303 302 301 300 298 297 297 297 297 296 295 295 295 295 294 294 296 298 298 298 297
318 317 316 318 318 315 315 313 312 311 312 310 309 307 304 302 302 301 298 298 297 297 297 296 296 296 296 295 295 295 295 295 295 294 294 296 297 297
316 318 318 317 315 315 313 311 310 310 310 310 306 303 302 301 300 301 298 297 298 299 298 297 296 296 296 295 294 294 293 293 293 293 293 293 293 294
320 319 318 316 315 314 312 309 309 307 307 305 302 302 302 302 301 298 298 299 298 297 296 295 294 293 292 290 288 286 285 285 284 284 285 285 286 288
319 318 318 315 315 313 310 308 306 305 304 302 300 298 298 297 296 297 298 297 297 295 292 289 288 287 286 285 284 285 285 284 284 284 284 284 286 289
316 315 312 311 310 308 307 305 304 302 300 297 295 294 294 295 295 297 296 294 293 291 289 288 288 288 289 289 288 287 287 287 286 285 285 285 284 284
310 306 304 303 303 303 301 301 299 298 295 293 293 294 295 295 294 292 291 290 290 288 288 289 288 287 287 287 287 287 287 287 286 285 285 285 284 284
300 298 296 294 296 295 297 294 291 291 291 290 291 291 290 289 288 288 287 287 287 287 287 288 287 287 287 287 287 286 286 286 285 285 285 284 284 284
293 292 291 290 289 290 289 288 286 285 284 284 285 286 286 285 285 285 285 285 286 286 286 287 287 287 287 287 287 286 286 285 285 285 284 284 285 284
289 288 288 287 283 283 284 284 284 284 282 281 281 280 279 279 278 280 283 284 285 285 285 285 285 285 286 286 287 286 286 285 285 284 285 284 285 285
283 283 282 282 281 281 283 284 284 284 282 282 281 281 280 281 279 279 281 281 282 283 284 284 285 284 284 284 285 286 286 286 286 285 286 285 286 287
283 282 281 282 282 281 281 283 283 282 281 281 281 280 280 280 279 279 279 279 280 280 281 280 280 281 281 282 282 283 283 284 285 286 286 286 286 287
283 282 281 280 280 280 281 280 279 279 280 281 281 280 280 280 279 278 278 277 277 277 277 277 277 278 279 280 281 281 282 283 284 286 287 287 286 286
281 280 280 279 280 280 279 279 278 280 280 280 280 279 279 278 277 276 276 276 276 275 275 275 276 276 277 278 280 281 281 282 283 286 287 287 286 286
281 281 280 280 280 279 279 279 279 278 277 277 277 277 276 276 276 276 275 275 275 276 276 276 276 276 276 277 279 279 280 282 282 286 287 287 286 286
281 281 281 280 280 279 279 278 277 277 276 276 275 275 274 274 274 274 274 274 274 275 275 275 275 275 275 275 276 277 279 280 281 284 287 286 286 285
280 279 279 278 278 277 277 276 275 275 274 273 272 272 272 272 272 272 272 272 273 273 274 274 274 274 275 276 276 278 279 281 282 283 287 286 286 285
277 277 276 275 275 274 274 273 273 272 271 271 270 270 270 270 270 270 271 271 272 272 272 272 273 273 276 278 277 277 279 280 278 284 286 286 285 285
274 274 273 272 272 271 271 270 270 270 269 269 268 268 268 268 269 269 269 270 270 270 270 271 272 273 274 275 274 273 273 275 277 280 286 286 285 284
271 271 270 270 269 269 269 268 268 268 267 267 267 267 267 267 268 268 268 269 269 269 270 271 271 271 271 272 273 275 276 277 278 279 286 286 285 285
269 269 268 268 267 267 267 267 267 267 267 266 266 266 266 267 267 267 268 268 269 269 269 270 270 271 271 272 274 275 276 276 277 281 285 285 285 286
267 267 267 266 266 266 266 266 266 265 265 265 265 266 266 266 266 267 267 268 268 269 269 269 270 270 271 272 273 274 274 275 276 283 282 283 283 283

GFSNE_925_thetae_093.txt.gz
Theta_e
323 324 324 324 324 324 324 323 322 321 320 317 315 314 314 313 313 310 309 306 305 307 307 305 302 301 300 298 296 296 295 295 296 298 299 300 300 300
323 323 324 324 323 322 321 321 319 318 318 317 315 313 314 313 310 307 307 307 307 305 304 302 301 298 297 296 296 296 295 294 294 294 296 298 298 298
323 324 323 322 319 317 318 318 317 316 315 315 314 313 312 310 309 309 307 305 304 303 302 300 298 297 296 297 297 296 296 295 295 295 295 295 297 297
323 323 320 318 318 318 318 316 315 314 314 314 312 310 308 308 307 305 302 301 301 300 299 298 297 296 296 296 296 296 296 296 295 295 294 294 293 294
323 320 317 317 320 318 317 315 314 313 313 312 309 304 304 305 302 302 299 299 298 298 298 299 299 298 297 296 295 295 294 293 293 291 288 286 285 285
320 319 319 321 320 318 317 315 314 312 310 307 304 302 301 299 299 298 298 298 298 299 300 298 296 293 291 290 290 289 287 285 285 285 285 285 285 285
320 318 315 313 313 313 312 309 308 305 303 302 297 296 295 295 295 296 296 297 298 298 297 295 293 291 290 290 290 290 289 289 288 287 286 286 286 285
312 305 302 301 300 302 303 302 300 298 295 294 293 293 293 293 294 293 292 292 292 292 291 291 290 290 289 289 289 288 288 288 288 288 287 287 286 285
299 297 294 292 293 292 292 292 292 291 292 291 289 288 288 288 288 289 289 289 289 289 289 289 289 289 289 289 288 288 287 287 287 286 286 285 285 285
291 289 290 289 289 290 290 289 288 288 288 287 287 287 286 286 286 286 286 286 286 286 286 287 287 288 288 289 289 288 288 287 287 286 286 285 285 285
288 288 287 287 288 289 288 286 285 285 285 284 282 281 280 280 279 279 281 283 285 286 286 287 287 286 287 287 286 287 287 287 286 286 286 285 285 285
285 285 285 285 283 284 285 285 285 286 285 284 284 283 283 283 282 281 281 282 283 283 284 284 284 284 285 285 285 285 286 285 284 284 285 285 286 286
283 283 282 282 282 282 283 283 282 281 282 283 283 283 283 283 283 282 281 281 281 281 281 280 281 280 281 282 282 282 283 284 284 284 284 286 287 287
285 284 281 280 281 280 282 280 279 280 282 282 282 282 282 282 281 280 279 279 279 279 278 278 278 278 278 279 280 280 281 282 283 283 284 285 287 287
281 281 281 281 282 280 280 279 280 281 280 279 279 279 279 278 278 278 278 278 278 277 277 278 278 278 278 278 279 279 280 280 281 282 283 284 285 287
282 282 281 281 281 281 281 280 280 279 278 278 278 277 276 276 276 275 276 275 275 275 275 276 276 277 278 278 278 278 279 280 280 281 282 284 285 287
283 282 281 281 280 279 279 278 278 277 276 275 274 274 274 273 273 273 273 273 273 274 274 275 275 275 276 276 276 277 277 278 279 280 281 282 283 287
281 280 279 278 277 277 276 276 275 274 274 272 272 272 272 272 271 271 271 272 272 272 273 273 273 274 274 275 275 276 277 278 280 281 282 282 283 285
277 277 276 275 275 274 274 273 273 272 271 271 271 270 270 270 270 270 270 271 271 271 272 271 272 272 275 275 275 275 275 274 275 276 278 279 279 287
274 274 274 273 273 272 272 271 271 270 270 270 269 269 269 269 269 269 269 270 270 270 270 271 272 272 273 273 273 272 273 274 274 276 277 279 281 286
272 272 272 271 271 270 270 270 270 270 269 269 269 269 268 268 268 269 269 269 269 270 270 271 271 271 271 272 273 273 274 274 275 277 277 278 281 285
271 271 270 270 269 269 269 269 269 269 268 268 268 268 268 268 268 268 268 269 269 269 270 270 270 271 271 272 273 273 274 274 275 275 276 278 281 286
269 269 269 269 269 268 268 267 267 267 267 267 267 267 267 267 267 268 268 268 269 269 269 270 270 270 270 271 272 273 274 274 274 275 278 283 284 285

GFSNE_925_thetae_096.txt.gz
Theta_e
322 322 323 322 323 324 323 322 321 320 319 320 320 319 319 318 316 314 314 314 313 312 310 309 308 305 303 304 304 304 302 301 301 302 302 302 302 302
321 322 323 323 323 323 323 321 322 321 319 318 317 317 318 316 316 315 314 314 313 312 309 308 306 303 305 305 303 302 300 298 296 296 296 297 298 299
323 323 323 324 324 324 323 323 320 318 318 318 317 316 316 316 315 314 313 313 312 308 307 307 306 306 305 302 301 298 296 296 296 296 295 295 297 298
323 323 324 324 324 324 322 319 317 318 317 316 316 315 314 314 313 312 311 308 307 307 307 306 304 302 301 299 296 296 296 296 296 296 296 296 295 296
323 323 323 323 323 321 319 317 318 318 317 315 314 312 311 309 307 306 306 306 306 305 301 299 299 299 297 296 296 295 295 295 296 295 295 294 293 292
323 323 322 320 317 317 317 317 316 315 313 311 305 301 300 299 299 298 299 298 299 298 299 299 299 299 299 298 296 294 294 292 291 290 289 287 285 285
318 314 306 304 304 307 308 308 307 305 303 299 296 296 294 294 293 293 293 293 295 295 293 293 293 293 293 292 292 291 290 290 290 290 289 288 288 287
306 299 295 296 295 296 296 297 298 296 295 293 291 290 289 289 290 290 290 290 291 291 291 291 291 291 290 290 290 290 289 289 288 288 288 288 288 287
296 294 292 292 292 292 293 293 293 292 291 290 289 288 288 287 287 287 287 287 288 288 288 288 288 288 288 288 288 288 288 289 288 288 288 287 287 286
292 291 290 289 289 290 290 289 289 288 287 287 287 286 285 284 282 282 282 282 283 283 285 285 285 286 286 286 287 288 288 288 287 287 287 287 287 286
288 288 288 287 287 287 287 286 286 285 284 284 284 283 283 283 283 282 282 282 282 283 283 284 284 284 283 283 284 286 286 286 285 286 286 287 287 286
285 285 286 285 285 285 285 284 283 281 282 283 283 283 283 283 282 282 282 282 281 281 282 280 280 280 280 281 283 281 281 282 282 283 284 285 285 285
283 282 281 281 282 282 280 280 280 282 282 281 281 281 281 281 280 279 279 278 278 278 278 278 278 278 278 278 278 278 278 278 279 281 282 283 284 284
282 281 282 282 281 280 280 280 281 280 279 279 279 279 278 277 276 276 276 276 276 277 276 276 277 277 278 278 277 277 277 278 279 279 280 281 282 283
282 282 282 282 282 281 280 280 279 278 278 277 276 275 275 274 274 274 274 274 273 273 273 273 274 274 275 277 277 278 278 278 278 279 279 280 281 283
282 282 281 281 280 279 279 278 277 276 275 274 274 273 273 273 272 272 272 272 272 272 272 272 273 274 274 274 275 275 276 276 276 277 277 278 279 280
282 280 279 278 278 277 276 275 274 274 273 272 272 272 271 271 271 271 270 271 271 271 271 272 272 272 272 272 273 274 274 275 276 276 275 276 279 281
279 277 276 276 275 274 274 273 272 271 271 271 271 270 270 270 270 270 270 270 270 270 270 270 270 271 271 272 273 273 273 272 272 273 274 276 277 277
276 275 274 274 273 273 272 271 271 270 270 270 270 270 269 269 269 269 269 269 269 269 269 269 270 271 272 271 271 271 271 272 272 273 274 275 276 277
273 273 272 272 271 271 270 270 270 270 269 269 269 269 268 268 268 268 268 268 268 269 269 270 270 270 270 270 271 271 272 272 273 274 274 275 276 277
272 271 271 270 270 270 269 269 269 269 268 268 268 267 268 268 267 267 268 268 268 269 269 269 269 270 270 270 270 270 271 271 272 273 275 275 276 276
270 270 269 269 269 269 268 268 268 267 267 267 267 267 267 266 266 267 267 267 268 268 268 268 269 270 269 270 270 270 271 271 272 273 274 275 275 276
268 268 268 268 267 267 267 266 266 266 266 266 266 266 265 265 266 266 267 267 267 267 268 268 268 268 269 269 270 270 271 272 273 273 274 277 279 278

GFSNE_925_thetae_099.txt.gz
Theta_e
320 320 321 320 321 321 322 321 321 320 318 318 318 319 320 320 319 319 316 317 316 315 313 314 313 313 312 311 308 307 307 307 306 303 304 306 307 307
320 321 322 322 321 322 322 321 322 321 319 319 319 318 318 317 318 317 317 317 316 316 314 313 313 312 311 310 308 306 305 304 302 303 302 302 301 301
321 321 322 322 321 321 322 322 322 321 320 320 319 318 317 317 317 316 316 316 314 314 313 312 312 311 308 306 305 304 303 302 301 300 297 298 299 299
321 321 322 322 322 323 323 323 323 323 320 319 319 317 316 316 315 314 312 311 309 307 307 306 305 305 305 305 303 301 300 299 297 296 296 295 295 296
321 321 322 322 322 322 323 322 321 319 318 318 316 308 308 306 306 304 304 303 302 302 302 300 300 299 299 299 299 298 296 295 294 294 294 295 294 293
321 321 320 320 319 318 316 314 313 312 309 306 301 299 299 297 296 296 295 296 297 297 297 298 298 298 298 297 296 295 294 292 292 292 292 291 290 289
316 313 309 306 305 306 306 304 305 303 300 298 295 292 291 290 290 290 291 291 292 293 293 293 294 293 293 293 292 292 291 291 290 290 290 289 289 289
308 301 298 297 297 297 298 296 297 297 294 292 290 289 287 287 287 287 287 287 288 289 286 285 287 287 287 287 288 288 288 289 288 288 289 289 288 288
298 294 292 291 292 292 293 292 292 291 290 289 287 287 285 285 285 284 283 282 282 283 283 284 285 284 285 285 285 285 286 286 287 287 287 288 288 288
292 291 290 289 289 289 289 287 286 285 285 285 284 284 283 282 282 282 281 282 282 282 282 283 282 281 280 280 281 283 284 283 283 283 284 284 285 287
288 288 287 287 286 287 286 284 283 283 283 283 283 283 282 282 281 281 280 280 280 280 280 278 279 278 278 278 279 279 280 278 278 279 280 281 282 282
284 284 284 285 284 283 282 282 282 282 282 281 281 281 280 278 278 277 277 278 278 278 278 277 278 277 277 277 277 277 277 277 277 278 278 280 281 282
282 282 282 281 280 281 281 281 280 279 279 279 278 277 276 275 275 274 274 274 275 275 274 274 274 274 274 274 275 275 276 276 277 277 278 278 279 280
282 282 281 281 280 281 280 279 278 277 277 276 274 274 274 273 273 272 272 272 271 271 272 272 272 273 273 273 274 274 274 274 275 276 276 276 276 277
282 282 281 280 280 279 278 277 276 275 273 273 273 272 272 271 271 270 270 270 270 270 271 271 271 272 272 272 272 272 272 273 273 274 275 275 275 277
281 281 279 278 277 276 275 274 273 272 272 271 271 270 270 270 270 270 270 270 270 270 270 270 270 270 270 271 271 272 272 273 273 272 272 273 273 274
279 278 277 276 274 274 273 272 271 270 271 270 269 270 269 269 269 269 269 269 269 269 269 269 269 270 270 271 271 272 271 271 271 271 272 273 273 274
276 274 273 273 272 272 271 270 270 270 269 269 269 269 268 268 268 268 268 268 268 268 268 269 269 269 270 270 270 270 270 271 271 271 272 273 273 274
273 272 272 271 271 270 270 269 270 269 269 268 268 267 267 267 267 267 267 267 267 268 268 268 269 269 269 269 269 270 270 270 271 271 271 272 273 273
271 271 270 270 270 269 269 269 268 268 268 267 267 267 267 266 266 266 266 267 267 267 268 268 268 268 269 269 269 269 269 270 270 271 271 272 273 274
270 270 269 269 269 268 268 268 267 267 267 266 266 266 266 265 265 265 266 266 266 267 267 267 267 268 268 268 268 269 269 270 271 271 272 272 273 274
269 268 268 268 268 267 267 266 266 266 266 266 265 265 265 264 264 264 264 265 265 266 266 266 267 267 267 268 268 269 269 270 271 272 273 273 274 275
267 267 267 267 266 266 265 265 265 265 265 265 264 264 263 263 263 263 263 263 264 265 265 265 266 267 267 267 268 269 270 270 271 272 273 276 275 275